Observation data for New Home on 04/23/2019      Previous  Date  Next       Current Mesonet Observations  Soil Data  Daily Summary Page  Observations in Plain Language
KNH1 230500Z 05011KT 14/14 A3005 RMK A01 T01440136  RH  095%=      5-min Rain = 0
KNH1 230501Z 05013KT 15/14 A3005 RMK A01 T01450136  RH  094%=      5-min Rain = 0
KNH1 230502Z 05009G14KT 14/14 A3005 RMK A01 T01440135  RH  094%=      5-min Rain = 0
KNH1 230503Z 05011KT 14/14 A3005 RMK A01 T01440135  RH  094%=      5-min Rain = 0
KNH1 230504Z 05008KT 14/13 A3005 RMK A01 T01440134  RH  094%=      5-min Rain = 0
KNH1 230505Z 04009KT 14/14 A3005 RMK A01 T01440135  RH  094%=      5-min Rain = 0
KNH1 230506Z 04008KT 14/14 A3005 RMK A01 T01440135  RH  094%=      5-min Rain = 0
KNH1 230507Z 04010KT 14/14 A3005 RMK A01 T01440136  RH  095%=      5-min Rain = 0
KNH1 230508Z 04010KT 14/14 A3005 RMK A01 T01440136  RH  095%=      5-min Rain = 0
KNH1 230509Z 04010KT 14/14 A3005 RMK A01 T01440135  RH  095%=      5-min Rain = 0
KNH1 230510Z 05012KT 14/13 A3005 RMK A01 T01430134  RH  094%=      5-min Rain = 0
KNH1 230511Z 05011KT 14/13 A3005 RMK A01 T01430133  RH  094%=      5-min Rain = 0
KNH1 230512Z 04011KT 14/13 A3005 RMK A01 T01430133  RH  094%=      5-min Rain = 0
KNH1 230513Z 04009KT 14/13 A3005 RMK A01 T01430133  RH  094%=      5-min Rain = 0
KNH1 230514Z 05009KT 14/13 A3005 RMK A01 T01420133  RH  094%=      5-min Rain = 0
KNH1 230515Z 05009KT 14/13 A3005 RMK A01 T01420133  RH  094%=      5-min Rain = 0
KNH1 230516Z 04010KT 14/13 A3005 RMK A01 T01420132  RH  094%=      5-min Rain = 0
KNH1 230517Z 05009KT 14/13 A3005 RMK A01 T01420132  RH  094%=      5-min Rain = 0
KNH1 230518Z 05011KT 14/13 A3005 RMK A01 T01420132  RH  094%=      5-min Rain = 0
KNH1 230519Z 04009KT 14/13 A3005 RMK A01 T01420133  RH  094%=      5-min Rain = 0
KNH1 230520Z 05009G14KT 14/13 A3005 RMK A01 T01420133  RH  094%=      5-min Rain = 0
KNH1 230521Z 04011KT 14/13 A3005 RMK A01 T01420133  RH  094%=      5-min Rain = 0
KNH1 230522Z 04008KT 14/13 A3005 RMK A01 T01410132  RH  094%=      5-min Rain = 0
KNH1 230523Z 05008G13KT 14/13 A3005 RMK A01 T01410132  RH  094%=      5-min Rain = 0
KNH1 230524Z 05011KT 14/13 A3005 RMK A01 T01410132  RH  094%=      5-min Rain = 0
KNH1 230525Z 04010KT 14/13 A3005 RMK A01 T01410131  RH  094%=      5-min Rain = 0
KNH1 230526Z 05009KT 14/13 A3005 RMK A01 T01400131  RH  094%=      5-min Rain = 0
KNH1 230527Z 05011G16KT 14/13 A3005 RMK A01 T01400131  RH  094%=      5-min Rain = 0
KNH1 230528Z 05011KT 14/13 A3005 RMK A01 T01400131  RH  094%=      5-min Rain = 0
KNH1 230529Z 05011KT 14/13 A3005 RMK A01 T01400131  RH  094%=      5-min Rain = 0
KNH1 230530Z 04012G17KT 14/13 A3005 RMK A01 T01400131  RH  094%=      5-min Rain = 0
KNH1 230531Z 04010KT 14/13 A3005 RMK A01 T01400130  RH  094%=      5-min Rain = 0
KNH1 230532Z 04011KT 14/13 A3005 RMK A01 T01390130  RH  094%=      5-min Rain = 0
KNH1 230533Z 04012KT 14/13 A3005 RMK A01 T01390130  RH  094%=      5-min Rain = 0
KNH1 230534Z 05010KT 14/13 A3005 RMK A01 T01390129  RH  094%=      5-min Rain = 0
KNH1 230535Z 05009KT 14/13 A3005 RMK A01 T01390129  RH  094%=      5-min Rain = 0
KNH1 230536Z 04008KT 14/13 A3005 RMK A01 T01380129  RH  094%=      5-min Rain = 0
KNH1 230537Z 04009KT 14/13 A3005 RMK A01 T01380129  RH  094%=      5-min Rain = 0
KNH1 230538Z 04009KT 14/13 A3005 RMK A01 T01380129  RH  094%=      5-min Rain = 0
KNH1 230539Z 05008KT 14/13 A3005 RMK A01 T01390130  RH  094%=      5-min Rain = 0
KNH1 230540Z 05010KT 14/13 A3005 RMK A01 T01390130  RH  094%=      5-min Rain = 0
KNH1 230541Z 04011KT 14/13 A3004 RMK A01 T01380129  RH  094%=      5-min Rain = 0
KNH1 230542Z 05010KT 14/13 A3005 RMK A01 T01380129  RH  094%=      5-min Rain = 0
KNH1 230543Z 05009KT 14/13 A3005 RMK A01 T01380129  RH  094%=      5-min Rain = 0
KNH1 230544Z 04010KT 14/13 A3004 RMK A01 T01380129  RH  094%=      5-min Rain = 0
KNH1 230545Z 05009KT 14/13 A3004 RMK A01 T01380129  RH  094%=      5-min Rain = 0
KNH1 230546Z 05012KT 14/13 A3004 RMK A01 T01380128  RH  094%=      5-min Rain = 0
KNH1 230547Z 04011KT 14/13 A3004 RMK A01 T01380128  RH  094%=      5-min Rain = 0
KNH1 230548Z 05012G17KT 14/13 A3004 RMK A01 T01370128  RH  094%=      5-min Rain = 0
KNH1 230549Z 04010KT 14/13 A3004 RMK A01 T01370128  RH  094%=      5-min Rain = 0
KNH1 230550Z 05010KT 14/13 A3005 RMK A01 T01380128  RH  094%=      5-min Rain = 0
KNH1 230551Z 06010KT 14/13 A3005 RMK A01 T01380128  RH  094%=      5-min Rain = 0
KNH1 230552Z 05010KT 14/13 A3005 RMK A01 T01380128  RH  094%=      5-min Rain = 0
KNH1 230553Z 05010G16KT 14/13 A3005 RMK A01 T01370128  RH  094%=      5-min Rain = 0
KNH1 230554Z 05012KT 14/13 A3005 RMK A01 T01370128  RH  094%=      5-min Rain = 0
KNH1 230555Z 05011KT 14/13 A3005 RMK A01 T01370128  RH  094%=      5-min Rain = 0
KNH1 230556Z 05011KT 14/13 A3005 RMK A01 T01370127  RH  094%=      5-min Rain = 0
KNH1 230557Z 05010KT 14/13 A3005 RMK A01 T01370127  RH  094%=      5-min Rain = 0
KNH1 230558Z 05009KT 14/13 A3005 RMK A01 T01370128  RH  094%=      5-min Rain = 0
KNH1 230559Z 05009KT 14/13 A3005 RMK A01 T01370128  RH  094%=      5-min Rain = 0
KNH1 230600Z 05011KT 14/13 A3005 RMK A01 T01370127  RH  094%=      5-min Rain = 0
KNH1 230601Z 05013KT 14/13 A3005 RMK A01 T01370127  RH  094%=      5-min Rain = 0
KNH1 230602Z 05011KT 14/13 A3005 RMK A01 T01370127  RH  094%=      5-min Rain = 0
KNH1 230603Z 05010KT 14/13 A3005 RMK A01 T01370126  RH  094%=      5-min Rain = 0
KNH1 230604Z 06009KT 14/13 A3005 RMK A01 T01370127  RH  094%=      5-min Rain = 0
KNH1 230605Z 05010KT 14/13 A3005 RMK A01 T01370127  RH  094%=      5-min Rain = 0
KNH1 230606Z 06010KT 14/13 A3005 RMK A01 T01360127  RH  094%=      5-min Rain = 0
KNH1 230607Z 06009KT 14/13 A3005 RMK A01 T01370127  RH  094%=      5-min Rain = 0
KNH1 230608Z 06012G17KT 14/13 A3004 RMK A01 T01370127  RH  094%=      5-min Rain = 0
KNH1 230609Z 06010KT 14/13 A3005 RMK A01 T01370127  RH  094%=      5-min Rain = 0
KNH1 230610Z 05009KT 14/13 A3005 RMK A01 T01370127  RH  094%=      5-min Rain = 0
KNH1 230611Z 05008KT 14/13 A3005 RMK A01 T01370127  RH  094%=      5-min Rain = 0
KNH1 230612Z 05009KT 14/13 A3005 RMK A01 T01370127  RH  094%=      5-min Rain = 0
KNH1 230613Z 05008KT 14/13 A3005 RMK A01 T01370127  RH  094%=      5-min Rain = 0
KNH1 230614Z 06009KT 14/13 A3005 RMK A01 T01370127  RH  094%=      5-min Rain = 0
KNH1 230615Z 05010KT 14/13 A3005 RMK A01 T01360127  RH  094%=      5-min Rain = 0
KNH1 230616Z 05008KT 14/13 A3005 RMK A01 T01370128  RH  094%=      5-min Rain = 0
KNH1 230617Z 05009KT 14/13 A3005 RMK A01 T01370128  RH  094%=      5-min Rain = 0
KNH1 230618Z 06012KT 14/13 A3005 RMK A01 T01360128  RH  094%=      5-min Rain = 0
KNH1 230619Z 05009KT 14/13 A3005 RMK A01 T01360127  RH  094%=      5-min Rain = 0
KNH1 230620Z 05009KT 14/13 A3005 RMK A01 T01360128  RH  095%=      5-min Rain = 0
KNH1 230621Z 05009KT 14/13 A3005 RMK A01 T01360128  RH  095%=      5-min Rain = 0
KNH1 230622Z 05007KT 14/13 A3005 RMK A01 T01360128  RH  095%=      5-min Rain = 0
KNH1 230623Z 04007KT 14/13 A3004 RMK A01 T01360128  RH  095%=      5-min Rain = 0
KNH1 230624Z 04008KT 14/13 A3004 RMK A01 T01360128  RH  095%=      5-min Rain = 0
KNH1 230625Z 04010KT 14/13 A3004 RMK A01 T01360128  RH  095%=      5-min Rain = 0
KNH1 230626Z 04009KT 14/13 A3004 RMK A01 T01360128  RH  095%=      5-min Rain = 0
KNH1 230627Z 04012KT 14/13 A3004 RMK A01 T01360128  RH  095%=      5-min Rain = 0
KNH1 230628Z 04011KT 14/13 A3004 RMK A01 T01360127  RH  095%=      5-min Rain = 0
KNH1 230629Z 04009KT 14/13 A3004 RMK A01 T01360127  RH  095%=      5-min Rain = 0
KNH1 230630Z 04010KT 14/13 A3004 RMK A01 T01350126  RH  094%=      5-min Rain = 0
KNH1 230631Z 04011KT 14/13 A3004 RMK A01 T01350126  RH  094%=      5-min Rain = 0
KNH1 230632Z 04012KT 14/13 A3004 RMK A01 T01350126  RH  094%=      5-min Rain = 0
KNH1 230633Z 04012KT 14/13 A3004 RMK A01 T01350126  RH  094%=      5-min Rain = 0
KNH1 230634Z 04008G14KT 13/13 A3004 RMK A01 T01340126  RH  094%=      5-min Rain = 0
KNH1 230635Z 04009G14KT 13/13 A3004 RMK A01 T01340126  RH  095%=      5-min Rain = 0
KNH1 230636Z 04011KT 13/13 A3004 RMK A01 T01340126  RH  094%=      5-min Rain = 0
KNH1 230637Z 04011KT 13/13 A3004 RMK A01 T01340125  RH  094%=      5-min Rain = 0
KNH1 230638Z 04010KT 13/13 A3004 RMK A01 T01340125  RH  094%=      5-min Rain = 0
KNH1 230639Z 04010KT 13/13 A3004 RMK A01 T01340125  RH  094%=      5-min Rain = 0
KNH1 230640Z 04010KT 13/13 A3004 RMK A01 T01340125  RH  094%=      5-min Rain = 0
KNH1 230641Z 04009KT 13/13 A3005 RMK A01 T01340125  RH  094%=      5-min Rain = 0
KNH1 230642Z 04011KT 13/13 A3005 RMK A01 T01340125  RH  094%=      5-min Rain = 0
KNH1 230643Z 04011KT 13/13 A3005 RMK A01 T01340125  RH  094%=      5-min Rain = 0
KNH1 230644Z 04012KT 13/13 A3005 RMK A01 T01340125  RH  094%=      5-min Rain = 0
KNH1 230645Z 04010KT 13/13 A3005 RMK A01 T01340125  RH  094%=      5-min Rain = 0
KNH1 230646Z 04010KT 13/13 A3005 RMK A01 T01340125  RH  094%=      5-min Rain = 0
KNH1 230647Z 04007KT 13/13 A3005 RMK A01 T01340125  RH  094%=      5-min Rain = 0
KNH1 230648Z 04008G13KT 13/13 A3004 RMK A01 T01340125  RH  095%=      5-min Rain = 0
KNH1 230649Z 05009KT 13/13 A3004 RMK A01 T01340126  RH  095%=      5-min Rain = 0
KNH1 230650Z 04011KT 13/13 A3004 RMK A01 T01340126  RH  095%=      5-min Rain = 0
KNH1 230651Z 04008KT 13/13 A3004 RMK A01 T01330125  RH  095%=      5-min Rain = 0
KNH1 230652Z 04010KT 13/13 A3004 RMK A01 T01340126  RH  095%=      5-min Rain = 0
KNH1 230653Z 05010KT 13/13 A3004 RMK A01 T01330125  RH  095%=      5-min Rain = 0
KNH1 230654Z 05009KT 13/13 A3004 RMK A01 T01330126  RH  095%=      5-min Rain = 0
KNH1 230655Z 05008KT 13/13 A3004 RMK A01 T01330126  RH  095%=      5-min Rain = 0
KNH1 230656Z 04008KT 13/13 A3004 RMK A01 T01340126  RH  095%=      5-min Rain = 0
KNH1 230657Z 05009KT 13/13 A3004 RMK A01 T01330126  RH  095%=      5-min Rain = 0
KNH1 230658Z 04010KT 13/13 A3004 RMK A01 T01330126  RH  095%=      5-min Rain = 0
KNH1 230659Z 04011KT 13/13 A3004 RMK A01 T01330125  RH  095%=      5-min Rain = 0
KNH1 230700Z 05010KT 13/13 A3004 RMK A01 T01330125  RH  095%=      5-min Rain = 0
KNH1 230701Z 04008KT 13/13 A3004 RMK A01 T01330125  RH  095%=      5-min Rain = 0
KNH1 230702Z 04009KT 13/13 A3004 RMK A01 T01330125  RH  095%=      5-min Rain = 0
KNH1 230703Z 04010KT 13/13 A3004 RMK A01 T01330125  RH  095%=      5-min Rain = 0
KNH1 230704Z 04010KT 13/13 A3004 RMK A01 T01330125  RH  095%=      5-min Rain = 0
KNH1 230705Z 04011KT 13/13 A3004 RMK A01 T01330125  RH  095%=      5-min Rain = 0
KNH1 230706Z 04010KT 13/13 A3004 RMK A01 T01330125  RH  095%=      5-min Rain = 0
KNH1 230707Z 04009KT 13/13 A3004 RMK A01 T01330125  RH  095%=      5-min Rain = 0
KNH1 230708Z 04009KT 13/12 A3004 RMK A01 T01320124  RH  095%=      5-min Rain = 0
KNH1 230709Z 05009KT 13/12 A3004 RMK A01 T01320124  RH  095%=      5-min Rain = 0
KNH1 230710Z 04010KT 13/13 A3004 RMK A01 T01320125  RH  095%=      5-min Rain = 0
KNH1 230711Z 05010G15KT 13/13 A3004 RMK A01 T01330125  RH  095%=      5-min Rain = 0
KNH1 230712Z 04010KT 13/13 A3004 RMK A01 T01330125  RH  095%=      5-min Rain = 0
KNH1 230713Z 04010KT 13/13 A3004 RMK A01 T01330125  RH  095%=      5-min Rain = 0
KNH1 230714Z 04009KT 13/13 A3003 RMK A01 T01330125  RH  095%=      5-min Rain = 0
KNH1 230715Z 04010KT 13/12 A3003 RMK A01 T01330124  RH  095%=      5-min Rain = 0
KNH1 230716Z 05010KT 13/12 A3003 RMK A01 T01330124  RH  095%=      5-min Rain = 0
KNH1 230717Z 04011KT 13/13 A3003 RMK A01 T01330125  RH  095%=      5-min Rain = 0
KNH1 230718Z 05007KT 13/12 A3004 RMK A01 T01320124  RH  095%=      5-min Rain = 0
KNH1 230719Z 04010G15KT 13/13 A3004 RMK A01 T01330125  RH  095%=      5-min Rain = 0
KNH1 230720Z 05012KT 13/12 A3004 RMK A01 T01320124  RH  095%=      5-min Rain = 0
KNH1 230721Z 05010KT 13/12 A3004 RMK A01 T01330124  RH  094%=      5-min Rain = 0
KNH1 230722Z 04008KT 13/12 A3004 RMK A01 T01330124  RH  094%=      5-min Rain = 0
KNH1 230723Z 05009KT 13/12 A3004 RMK A01 T01330124  RH  094%=      5-min Rain = 0
KNH1 230724Z 04011KT 13/12 A3004 RMK A01 T01320123  RH  094%=      5-min Rain = 0
KNH1 230725Z 05009KT 13/12 A3003 RMK A01 T01320123  RH  094%=      5-min Rain = 0
KNH1 230726Z 05010KT 13/12 A3003 RMK A01 T01320123  RH  094%=      5-min Rain = 0
KNH1 230727Z 05008KT 13/12 A3003 RMK A01 T01320123  RH  094%=      5-min Rain = 0
KNH1 230728Z 05009KT 13/12 A3003 RMK A01 T01320124  RH  095%=      5-min Rain = 0
KNH1 230729Z 05012KT 13/12 A3003 RMK A01 T01320124  RH  095%=      5-min Rain = 0
KNH1 230730Z 04010KT 13/12 A3003 RMK A01 T01320123  RH  094%=      5-min Rain = 0
KNH1 230731Z 05008KT 13/12 A3003 RMK A01 T01320123  RH  094%=      5-min Rain = 0
KNH1 230732Z 05007KT 13/12 A3003 RMK A01 T01320124  RH  095%=      5-min Rain = 0
KNH1 230733Z 04006KT 13/12 A3003 RMK A01 T01320124  RH  095%=      5-min Rain = 0
KNH1 230734Z 04007KT 13/12 A3003 RMK A01 T01320124  RH  095%=      5-min Rain = 0
KNH1 230735Z 04010KT 13/12 A3003 RMK A01 T01320124  RH  095%=      5-min Rain = 0
KNH1 230736Z 04010KT 13/12 A3003 RMK A01 T01320124  RH  095%=      5-min Rain = 0
KNH1 230737Z 05010KT 13/12 A3003 RMK A01 T01320124  RH  095%=      5-min Rain = 0
KNH1 230738Z 04009KT 13/12 A3003 RMK A01 T01310124  RH  095%=      5-min Rain = 0
KNH1 230739Z 04009KT 13/12 A3003 RMK A01 T01320124  RH  095%=      5-min Rain = 0
KNH1 230740Z 04009G14KT 13/12 A3003 RMK A01 T01320124  RH  095%=      5-min Rain = 0
KNH1 230741Z 04010KT 13/12 A3003 RMK A01 T01310124  RH  095%=      5-min Rain = 0
KNH1 230742Z 04010KT 13/12 A3003 RMK A01 T01320124  RH  095%=      5-min Rain = 0
KNH1 230743Z 04008KT 13/12 A3003 RMK A01 T01320124  RH  095%=      5-min Rain = 0
KNH1 230744Z 04009KT 13/12 A3003 RMK A01 T01320124  RH  095%=      5-min Rain = 0
KNH1 230745Z 04010KT 13/12 A3003 RMK A01 T01320124  RH  095%=      5-min Rain = 0
KNH1 230746Z 04010KT 13/12 A3003 RMK A01 T01320124  RH  095%=      5-min Rain = 0
KNH1 230747Z 04011KT 13/12 A3003 RMK A01 T01320123  RH  095%=      5-min Rain = 0
KNH1 230748Z 04010KT 13/12 A3003 RMK A01 T01320123  RH  095%=      5-min Rain = 0
KNH1 230749Z 04011KT 13/12 A3003 RMK A01 T01320123  RH  095%=      5-min Rain = 0
KNH1 230750Z 04010KT 13/12 A3003 RMK A01 T01310122  RH  094%=      5-min Rain = 0
KNH1 230751Z 04010KT 13/12 A3003 RMK A01 T01310122  RH  094%=      5-min Rain = 0
KNH1 230752Z 04010KT 13/12 A3003 RMK A01 T01310122  RH  094%=      5-min Rain = 0
KNH1 230753Z 04007KT 13/12 A3003 RMK A01 T01310122  RH  094%=      5-min Rain = 0
KNH1 230754Z 03008KT 13/12 A3003 RMK A01 T01310123  RH  095%=      5-min Rain = 0
KNH1 230755Z 04008KT 13/12 A3003 RMK A01 T01310123  RH  095%=      5-min Rain = 0
KNH1 230756Z 03008KT 13/12 A3003 RMK A01 T01310123  RH  095%=      5-min Rain = 0
KNH1 230757Z 03008KT 13/12 A3003 RMK A01 T01310123  RH  095%=      5-min Rain = 0
KNH1 230758Z 03007KT 13/12 A3003 RMK A01 T01310123  RH  095%=      5-min Rain = 0
KNH1 230759Z 03007KT 13/12 A3003 RMK A01 T01320124  RH  095%=      5-min Rain = 0
KNH1 230800Z 02008KT 13/12 A3003 RMK A01 T01310124  RH  095%=      5-min Rain = 0
KNH1 230801Z 03008KT 13/12 A3003 RMK A01 T01320124  RH  095%=      5-min Rain = 0
KNH1 230802Z 03010KT 13/12 A3003 RMK A01 T01320124  RH  095%=      5-min Rain = 0
KNH1 230803Z 02007KT 13/12 A3003 RMK A01 T01320124  RH  095%=      5-min Rain = 0
KNH1 230804Z 03007KT 13/12 A3003 RMK A01 T01320124  RH  095%=      5-min Rain = 0
KNH1 230805Z 02009KT 13/12 A3003 RMK A01 T01320124  RH  095%=      5-min Rain = 0
KNH1 230806Z 02008KT 13/12 A3003 RMK A01 T01310123  RH  095%=      5-min Rain = 0
KNH1 230807Z 03007KT 13/12 A3003 RMK A01 T01320124  RH  095%=      5-min Rain = 0
KNH1 230808Z 02007KT 13/12 A3003 RMK A01 T01320124  RH  095%=      5-min Rain = 0
KNH1 230809Z 01007KT 13/12 A3003 RMK A01 T01310123  RH  095%=      5-min Rain = 0
KNH1 230810Z 03008KT 13/12 A3003 RMK A01 T01320124  RH  095%=      5-min Rain = 0
KNH1 230811Z 02009KT 13/12 A3003 RMK A01 T01320124  RH  095%=      5-min Rain = 0
KNH1 230812Z 03010KT 13/12 A3003 RMK A01 T01310124  RH  095%=      5-min Rain = 0
KNH1 230813Z 02013KT 13/12 A3003 RMK A01 T01320123  RH  095%=      5-min Rain = 0
KNH1 230814Z 02011KT 13/12 A3002 RMK A01 T01320123  RH  095%=      5-min Rain = 0
KNH1 230815Z 02011KT 13/12 A3002 RMK A01 T01320123  RH  094%=      5-min Rain = 0
KNH1 230816Z 02009KT 13/12 A3002 RMK A01 T01320123  RH  094%=      5-min Rain = 0
KNH1 230817Z 02008KT 13/12 A3003 RMK A01 T01320123  RH  095%=      5-min Rain = 0
KNH1 230818Z 02010KT 13/12 A3002 RMK A01 T01320123  RH  095%=      5-min Rain = 0
KNH1 230819Z 02009KT 13/12 A3003 RMK A01 T01320124  RH  095%=      5-min Rain = 0
KNH1 230820Z 01009KT 13/12 A3003 RMK A01 T01320124  RH  095%=      5-min Rain = 0
KNH1 230821Z 02011KT 13/12 A3002 RMK A01 T01320124  RH  095%=      5-min Rain = 0
KNH1 230822Z 02010KT 13/12 A3002 RMK A01 T01320124  RH  095%=      5-min Rain = 0
KNH1 230823Z 02009KT 13/12 A3003 RMK A01 T01320124  RH  095%=      5-min Rain = 0
KNH1 230824Z 02011KT 13/12 A3002 RMK A01 T01310123  RH  095%=      5-min Rain = 0
KNH1 230825Z 02012KT 13/12 A3003 RMK A01 T01310123  RH  095%=      5-min Rain = 0
KNH1 230826Z 02010KT 13/12 A3003 RMK A01 T01320123  RH  095%=      5-min Rain = 0
KNH1 230827Z 02011KT 13/12 A3003 RMK A01 T01320123  RH  094%=      5-min Rain = 0
KNH1 230828Z 02009KT 13/12 A3003 RMK A01 T01310122  RH  094%=      5-min Rain = 0
KNH1 230829Z 02008KT 13/12 A3003 RMK A01 T01310123  RH  095%=      5-min Rain = 0
KNH1 230830Z 02009KT 13/12 A3003 RMK A01 T01310123  RH  095%=      5-min Rain = 0
KNH1 230831Z 01006KT 13/12 A3003 RMK A01 T01310123  RH  095%=      5-min Rain = 0
KNH1 230832Z 02011KT 13/12 A3003 RMK A01 T01310123  RH  095%=      5-min Rain = 0
KNH1 230833Z 02010KT 13/12 A3003 RMK A01 T01310123  RH  095%=      5-min Rain = 0
KNH1 230834Z 02011KT 13/12 A3003 RMK A01 T01310122  RH  095%=      5-min Rain = 0
KNH1 230835Z 02009G14KT 13/12 A3003 RMK A01 T01310122  RH  095%=      5-min Rain = 0
KNH1 230836Z 03011KT 13/12 A3003 RMK A01 T01300122  RH  095%=      5-min Rain = 0
KNH1 230837Z 03008KT 13/12 A3003 RMK A01 T01300122  RH  095%=      5-min Rain = 0
KNH1 230838Z 03009KT 13/12 A3003 RMK A01 T01300122  RH  095%=      5-min Rain = 0
KNH1 230839Z 02011KT 13/12 A3003 RMK A01 T01300122  RH  095%=      5-min Rain = 0.01
KNH1 230840Z 03009KT 13/12 A3003 RMK A01 T01300122  RH  095%=      5-min Rain = 0
KNH1 230841Z 02010KT 13/12 A3004 RMK A01 T01310123  RH  095%=      5-min Rain = 0
KNH1 230842Z 02008KT 13/12 A3004 RMK A01 T01300122  RH  095%=      5-min Rain = 0
KNH1 230843Z 01005KT 13/12 A3004 RMK A01 T01300123  RH  095%=      5-min Rain = 0
KNH1 230844Z 01007KT 13/12 A3004 RMK A01 T01300123  RH  095%=      5-min Rain = 0.01
KNH1 230845Z 36006KT 13/12 A3005 RMK A01 T01300123  RH  095%=      5-min Rain = 0
KNH1 230846Z 01006KT 13/12 A3005 RMK A01 T01300122  RH  095%=      5-min Rain = 0
KNH1 230847Z 01004KT 13/12 A3005 RMK A01 T01300122  RH  095%=      5-min Rain = 0.02
KNH1 230848Z 01007KT 13/12 A3005 RMK A01 T01300123  RH  095%=      5-min Rain = 0.04
KNH1 230849Z 00005KT 13/12 A3005 RMK A01 T01290122  RH  095%=      5-min Rain = 0.03
KNH1 230850Z 36007KT 13/12 A3005 RMK A01 T01290123  RH  096%=      5-min Rain = 0.02
KNH1 230851Z 35010KT 13/12 A3005 RMK A01 T01290123  RH  096%=      5-min Rain = 0.01
KNH1 230852Z 35012KT 13/12 A3004 RMK A01 T01290123  RH  096%=      5-min Rain = 0.01
KNH1 230853Z 35011KT 13/12 A3004 RMK A01 T01290123  RH  096%=      5-min Rain = 0
KNH1 230854Z 00010KT 13/12 A3003 RMK A01 T01290124  RH  097%=      5-min Rain = 0.01
KNH1 230855Z 01009KT 13/12 A3003 RMK A01 T01280123  RH  097%=      5-min Rain = 0
KNH1 230856Z 02008KT 13/12 A3003 RMK A01 T01280123  RH  097%=      5-min Rain = 0.01
KNH1 230857Z 03007KT 13/12 A3002 RMK A01 T01280123  RH  097%=      5-min Rain = 0
KNH1 230858Z 02007KT 13/12 A3002 RMK A01 T01280123  RH  097%=      5-min Rain = 0
KNH1 230859Z 01008KT 13/12 A3002 RMK A01 T01280123  RH  097%=      5-min Rain = 0
KNH1 230900Z 01008KT 13/12 A3002 RMK A01 T01280123  RH  097%=      5-min Rain = 0
KNH1 230901Z 03007KT 13/12 A3002 RMK A01 T01280123  RH  097%=      5-min Rain = 0
KNH1 230902Z 02006KT 13/12 A3002 RMK A01 T01280124  RH  097%=      5-min Rain = 0
KNH1 230903Z 03006KT 13/12 A3002 RMK A01 T01280123  RH  097%=      5-min Rain = 0
KNH1 230904Z 02006KT 13/12 A3002 RMK A01 T01280124  RH  097%=      5-min Rain = 0
KNH1 230905Z 04007KT 13/12 A3002 RMK A01 T01280123  RH  097%=      5-min Rain = 0.01
KNH1 230906Z 05008KT 13/12 A3002 RMK A01 T01280123  RH  097%=      5-min Rain = 0
KNH1 230907Z 05010KT 13/12 A3002 RMK A01 T01270123  RH  097%=      5-min Rain = 0
KNH1 230908Z 05008KT 13/12 A3003 RMK A01 T01270122  RH  097%=      5-min Rain = 0
KNH1 230909Z 06009KT 13/12 A3003 RMK A01 T01270122  RH  097%=      5-min Rain = 0
KNH1 230910Z 06008KT 13/12 A3003 RMK A01 T01270122  RH  097%=      5-min Rain = 0
KNH1 230911Z 06007KT 13/12 A3003 RMK A01 T01270122  RH  097%=      5-min Rain = 0
KNH1 230912Z 06008KT 13/12 A3003 RMK A01 T01280122  RH  097%=      5-min Rain = 0
KNH1 230913Z 07007KT 13/12 A3003 RMK A01 T01270122  RH  096%=      5-min Rain = 0
KNH1 230914Z 06008KT 13/12 A3003 RMK A01 T01270122  RH  096%=      5-min Rain = 0
KNH1 230915Z 06007KT 13/12 A3003 RMK A01 T01270122  RH  096%=      5-min Rain = 0
KNH1 230916Z 04007KT 13/12 A3003 RMK A01 T01280122  RH  096%=      5-min Rain = 0
KNH1 230917Z 03006KT 13/12 A3003 RMK A01 T01280122  RH  096%=      5-min Rain = 0
KNH1 230918Z 03007KT 13/12 A3004 RMK A01 T01270122  RH  096%=      5-min Rain = 0
KNH1 230919Z 02006KT 13/12 A3004 RMK A01 T01280122  RH  097%=      5-min Rain = 0
KNH1 230920Z 03007KT 13/12 A3004 RMK A01 T01280122  RH  097%=      5-min Rain = 0
KNH1 230921Z 02005KT 13/12 A3004 RMK A01 T01270122  RH  097%=      5-min Rain = 0
KNH1 230922Z 02007KT 13/12 A3003 RMK A01 T01280122  RH  097%=      5-min Rain = 0
KNH1 230923Z 02007KT 13/12 A3003 RMK A01 T01270122  RH  097%=      5-min Rain = 0
KNH1 230924Z 01007KT 13/12 A3004 RMK A01 T01270122  RH  097%=      5-min Rain = 0
KNH1 230925Z 01008KT 13/12 A3004 RMK A01 T01280122  RH  097%=      5-min Rain = 0
KNH1 230926Z 01008KT 13/12 A3004 RMK A01 T01270122  RH  097%=      5-min Rain = 0
KNH1 230927Z 01008KT 13/12 A3004 RMK A01 T01270122  RH  097%=      5-min Rain = 0
KNH1 230928Z 01008KT 13/12 A3004 RMK A01 T01270123  RH  097%=      5-min Rain = 0
KNH1 230929Z 00008KT 13/12 A3004 RMK A01 T01280123  RH  097%=      5-min Rain = 0
KNH1 230930Z 01007KT 13/12 A3004 RMK A01 T01270123  RH  097%=      5-min Rain = 0
KNH1 230931Z 01008KT 13/12 A3004 RMK A01 T01280123  RH  097%=      5-min Rain = 0
KNH1 230932Z 00008KT 13/12 A3004 RMK A01 T01280123  RH  097%=      5-min Rain = 0
KNH1 230933Z 36008KT 13/12 A3004 RMK A01 T01270123  RH  097%=      5-min Rain = 0
KNH1 230934Z 35009KT 13/12 A3004 RMK A01 T01280123  RH  097%=      5-min Rain = 0
KNH1 230935Z 34011KT 13/12 A3005 RMK A01 T01280124  RH  097%=      5-min Rain = 0
KNH1 230936Z 34011KT 13/12 A3005 RMK A01 T01280124  RH  097%=      5-min Rain = 0
KNH1 230937Z 34011KT 13/12 A3005 RMK A01 T01280124  RH  097%=      5-min Rain = 0
KNH1 230938Z 35011KT 13/12 A3005 RMK A01 T01280124  RH  097%=      5-min Rain = 0
KNH1 230939Z 35011KT 13/12 A3005 RMK A01 T01290124  RH  097%=      5-min Rain = 0
KNH1 230940Z 35011KT 13/12 A3004 RMK A01 T01280124  RH  097%=      5-min Rain = 0
KNH1 230941Z 35011KT 13/12 A3004 RMK A01 T01280124  RH  097%=      5-min Rain = 0
KNH1 230942Z 35009KT 13/12 A3004 RMK A01 T01290124  RH  097%=      5-min Rain = 0
KNH1 230943Z 35010KT 13/12 A3004 RMK A01 T01280123  RH  097%=      5-min Rain = 0
KNH1 230944Z 36011KT 13/12 A3005 RMK A01 T01280123  RH  097%=      5-min Rain = 0
KNH1 230945Z 35010KT 13/12 A3005 RMK A01 T01280124  RH  097%=      5-min Rain = 0
KNH1 230946Z 35009KT 13/12 A3005 RMK A01 T01290124  RH  097%=      5-min Rain = 0
KNH1 230947Z 35009KT 13/12 A3004 RMK A01 T01280123  RH  097%=      5-min Rain = 0
KNH1 230948Z 35009KT 13/12 A3004 RMK A01 T01290123  RH  097%=      5-min Rain = 0
KNH1 230949Z 36008KT 13/12 A3004 RMK A01 T01290123  RH  097%=      5-min Rain = 0
KNH1 230950Z 35008KT 13/12 A3004 RMK A01 T01290124  RH  097%=      5-min Rain = 0
KNH1 230951Z 35006KT 13/12 A3004 RMK A01 T01290123  RH  097%=      5-min Rain = 0
KNH1 230952Z 35008KT 13/12 A3004 RMK A01 T01280123  RH  097%=      5-min Rain = 0
KNH1 230953Z 36008KT 13/12 A3004 RMK A01 T01280123  RH  097%=      5-min Rain = 0
KNH1 230954Z 00007KT 13/12 A3004 RMK A01 T01280123  RH  097%=      5-min Rain = 0
KNH1 230955Z 01006KT 13/12 A3004 RMK A01 T01290123  RH  097%=      5-min Rain = 0
KNH1 230956Z 01008KT 13/12 A3004 RMK A01 T01280122  RH  096%=      5-min Rain = 0
KNH1 230957Z 01009KT 13/12 A3004 RMK A01 T01280122  RH  096%=      5-min Rain = 0
KNH1 230958Z 00008KT 13/12 A3004 RMK A01 T01280121  RH  096%=      5-min Rain = 0
KNH1 230959Z 00007KT 13/12 A3004 RMK A01 T01280121  RH  096%=      5-min Rain = 0
KNH1 231000Z 01008KT 13/12 A3004 RMK A01 T01280121  RH  095%=      5-min Rain = 0
KNH1 231001Z 01008KT 13/12 A3004 RMK A01 T01280120  RH  095%=      5-min Rain = 0
KNH1 231002Z 01008KT 13/12 A3003 RMK A01 T01280120  RH  095%=      5-min Rain = 0
KNH1 231003Z 01007KT 13/12 A3003 RMK A01 T01280120  RH  095%=      5-min Rain = 0
KNH1 231004Z 01008KT 13/12 A3003 RMK A01 T01280120  RH  095%=      5-min Rain = 0
KNH1 231005Z 01008KT 13/12 A3003 RMK A01 T01280120  RH  095%=      5-min Rain = 0
KNH1 231006Z 02008KT 13/12 A3003 RMK A01 T01280119  RH  095%=      5-min Rain = 0
KNH1 231007Z 03007KT 13/12 A3003 RMK A01 T01280119  RH  095%=      5-min Rain = 0
KNH1 231008Z 03007KT 13/12 A3003 RMK A01 T01280119  RH  095%=      5-min Rain = 0
KNH1 231009Z 03007KT 13/12 A3003 RMK A01 T01280119  RH  094%=      5-min Rain = 0
KNH1 231010Z 02008KT 13/12 A3002 RMK A01 T01280119  RH  094%=      5-min Rain = 0
KNH1 231011Z 03007KT 13/12 A3002 RMK A01 T01280119  RH  094%=      5-min Rain = 0
KNH1 231012Z 04007KT 13/12 A3002 RMK A01 T01270119  RH  094%=      5-min Rain = 0
KNH1 231013Z 05007KT 13/12 A3002 RMK A01 T01280119  RH  094%=      5-min Rain = 0
KNH1 231014Z 04007KT 13/12 A3002 RMK A01 T01270119  RH  094%=      5-min Rain = 0
KNH1 231015Z 04007KT 13/12 A3002 RMK A01 T01270118  RH  094%=      5-min Rain = 0
KNH1 231016Z 04007KT 13/12 A3002 RMK A01 T01270118  RH  094%=      5-min Rain = 0
KNH1 231017Z 03008KT 13/12 A3002 RMK A01 T01270118  RH  094%=      5-min Rain = 0
KNH1 231018Z 03008KT 13/12 A3002 RMK A01 T01270119  RH  094%=      5-min Rain = 0
KNH1 231019Z 04007KT 13/12 A3002 RMK A01 T01270118  RH  094%=      5-min Rain = 0
KNH1 231020Z 04008KT 13/12 A3002 RMK A01 T01270118  RH  094%=      5-min Rain = 0
KNH1 231021Z 04006KT 13/12 A3002 RMK A01 T01270118  RH  094%=      5-min Rain = 0
KNH1 231022Z 05007KT 13/12 A3002 RMK A01 T01270118  RH  094%=      5-min Rain = 0
KNH1 231023Z 05006KT 13/12 A3002 RMK A01 T01270117  RH  094%=      5-min Rain = 0
KNH1 231024Z 05007KT 13/12 A3002 RMK A01 T01270117  RH  094%=      5-min Rain = 0
KNH1 231025Z 06007KT 13/12 A3002 RMK A01 T01260117  RH  094%=      5-min Rain = 0
KNH1 231026Z 05006KT 13/12 A3002 RMK A01 T01260117  RH  094%=      5-min Rain = 0
KNH1 231027Z 06007KT 13/12 A3002 RMK A01 T01260117  RH  094%=      5-min Rain = 0
KNH1 231028Z 06006KT 13/12 A3002 RMK A01 T01260118  RH  094%=      5-min Rain = 0
KNH1 231029Z 05007KT 13/12 A3002 RMK A01 T01260118  RH  094%=      5-min Rain = 0
KNH1 231030Z 05005KT 13/12 A3002 RMK A01 T01260118  RH  095%=      5-min Rain = 0
KNH1 231031Z 05005KT 13/12 A3002 RMK A01 T01260118  RH  095%=      5-min Rain = 0
KNH1 231032Z 05006KT 13/12 A3002 RMK A01 T01260118  RH  095%=      5-min Rain = 0
KNH1 231033Z 06006KT 13/12 A3002 RMK A01 T01260118  RH  095%=      5-min Rain = 0
KNH1 231034Z 06005KT 13/12 A3002 RMK A01 T01260118  RH  095%=      5-min Rain = 0
KNH1 231035Z 06006KT 13/12 A3002 RMK A01 T01260119  RH  095%=      5-min Rain = 0
KNH1 231036Z 07006KT 13/12 A3002 RMK A01 T01260118  RH  095%=      5-min Rain = 0
KNH1 231037Z 06006KT 13/12 A3002 RMK A01 T01260118  RH  095%=      5-min Rain = 0
KNH1 231038Z 05005KT 13/12 A3002 RMK A01 T01260118  RH  095%=      5-min Rain = 0
KNH1 231039Z 05006KT 13/12 A3002 RMK A01 T01260119  RH  095%=      5-min Rain = 0
KNH1 231040Z 04006KT 13/12 A3002 RMK A01 T01260119  RH  095%=      5-min Rain = 0
KNH1 231041Z 04006KT 13/12 A3002 RMK A01 T01260118  RH  095%=      5-min Rain = 0
KNH1 231042Z 03006KT 13/12 A3002 RMK A01 T01260118  RH  095%=      5-min Rain = 0
KNH1 231043Z 03006KT 13/12 A3002 RMK A01 T01270118  RH  095%=      5-min Rain = 0
KNH1 231044Z 03006KT 13/12 A3002 RMK A01 T01270118  RH  094%=      5-min Rain = 0
KNH1 231045Z 03005KT 13/12 A3002 RMK A01 T01270118  RH  094%=      5-min Rain = 0
KNH1 231046Z 03005KT 13/12 A3002 RMK A01 T01270118  RH  094%=      5-min Rain = 0
KNH1 231047Z 03005KT 13/12 A3002 RMK A01 T01270118  RH  094%=      5-min Rain = 0
KNH1 231048Z 03005KT 13/12 A3003 RMK A01 T01270118  RH  094%=      5-min Rain = 0
KNH1 231049Z 03005KT 13/12 A3003 RMK A01 T01280118  RH  094%=      5-min Rain = 0
KNH1 231050Z 03004KT 13/12 A3003 RMK A01 T01280118  RH  094%=      5-min Rain = 0
KNH1 231051Z 03005KT 13/12 A3003 RMK A01 T01270118  RH  094%=      5-min Rain = 0
KNH1 231052Z 03004KT 13/12 A3003 RMK A01 T01280118  RH  094%=      5-min Rain = 0
KNH1 231053Z 03004KT 13/12 A3003 RMK A01 T01270118  RH  094%=      5-min Rain = 0
KNH1 231054Z 03004KT 13/12 A3003 RMK A01 T01280118  RH  094%=      5-min Rain = 0
KNH1 231055Z 04004KT 13/12 A3003 RMK A01 T01280118  RH  094%=      5-min Rain = 0
KNH1 231056Z 04003KT 13/12 A3004 RMK A01 T01270118  RH  094%=      5-min Rain = 0
KNH1 231057Z 04003KT 13/12 A3004 RMK A01 T01280118  RH  094%=      5-min Rain = 0
KNH1 231058Z 03004KT 13/12 A3004 RMK A01 T01280118  RH  094%=      5-min Rain = 0
KNH1 231059Z 03003KT 13/12 A3004 RMK A01 T01280118  RH  094%=      5-min Rain = 0
KNH1 231100Z 02003KT 13/12 A3004 RMK A01 T01280119  RH  094%=      5-min Rain = 0
KNH1 231101Z 03003KT 13/12 A3004 RMK A01 T01280118  RH  094%=      5-min Rain = 0
KNH1 231102Z 02003KT 13/12 A3004 RMK A01 T01280118  RH  093%=      5-min Rain = 0
KNH1 231103Z 01003KT 13/12 A3004 RMK A01 T01280118  RH  093%=      5-min Rain = 0
KNH1 231104Z 00003KT 13/12 A3004 RMK A01 T01280118  RH  093%=      5-min Rain = 0
KNH1 231105Z 36003KT 13/12 A3004 RMK A01 T01280118  RH  094%=      5-min Rain = 0
KNH1 231106Z 00004KT 13/12 A3004 RMK A01 T01280118  RH  094%=      5-min Rain = 0
KNH1 231107Z 36003KT 13/12 A3004 RMK A01 T01280118  RH  094%=      5-min Rain = 0
KNH1 231108Z 00004KT 13/12 A3004 RMK A01 T01280118  RH  094%=      5-min Rain = 0
KNH1 231109Z 01004KT 13/12 A3004 RMK A01 T01280119  RH  094%=      5-min Rain = 0
KNH1 231110Z 01004KT 13/12 A3004 RMK A01 T01280118  RH  094%=      5-min Rain = 0
KNH1 231111Z 01005KT 13/12 A3004 RMK A01 T01280118  RH  094%=      5-min Rain = 0
KNH1 231112Z 01004KT 13/12 A3004 RMK A01 T01270117  RH  094%=      5-min Rain = 0
KNH1 231113Z 02003KT 13/12 A3004 RMK A01 T01270117  RH  094%=      5-min Rain = 0
KNH1 231114Z 02004KT 13/12 A3004 RMK A01 T01280118  RH  094%=      5-min Rain = 0
KNH1 231115Z 02003KT 13/12 A3004 RMK A01 T01270118  RH  094%=      5-min Rain = 0
KNH1 231116Z 02004KT 13/12 A3004 RMK A01 T01280118  RH  094%=      5-min Rain = 0
KNH1 231117Z 01004KT 13/12 A3004 RMK A01 T01280118  RH  094%=      5-min Rain = 0
KNH1 231118Z 02005KT 13/12 A3004 RMK A01 T01270118  RH  094%=      5-min Rain = 0
KNH1 231119Z 02006KT 13/12 A3004 RMK A01 T01270118  RH  094%=      5-min Rain = 0
KNH1 231120Z 02006KT 13/12 A3004 RMK A01 T01270118  RH  094%=      5-min Rain = 0
KNH1 231121Z 01006KT 13/12 A3004 RMK A01 T01270118  RH  094%=      5-min Rain = 0
KNH1 231122Z 00006KT 13/12 A3004 RMK A01 T01270117  RH  094%=      5-min Rain = 0
KNH1 231123Z 00007KT 13/12 A3004 RMK A01 T01270117  RH  094%=      5-min Rain = 0
KNH1 231124Z 36006KT 13/12 A3004 RMK A01 T01280118  RH  094%=      5-min Rain = 0
KNH1 231125Z 00005KT 13/12 A3004 RMK A01 T01280118  RH  094%=      5-min Rain = 0
KNH1 231126Z 35006KT 13/12 A3004 RMK A01 T01270118  RH  094%=      5-min Rain = 0
KNH1 231127Z 35006KT 13/12 A3005 RMK A01 T01270118  RH  094%=      5-min Rain = 0
KNH1 231128Z 35005KT 13/12 A3005 RMK A01 T01270118  RH  095%=      5-min Rain = 0
KNH1 231129Z 35006KT 13/12 A3005 RMK A01 T01270119  RH  095%=      5-min Rain = 0
KNH1 231130Z 35006KT 13/12 A3005 RMK A01 T01260118  RH  095%=      5-min Rain = 0
KNH1 231131Z 35006KT 13/12 A3005 RMK A01 T01260118  RH  095%=      5-min Rain = 0
KNH1 231132Z 35007KT 13/12 A3005 RMK A01 T01260118  RH  095%=      5-min Rain = 0
KNH1 231133Z 34007KT 13/12 A3005 RMK A01 T01250117  RH  095%=      5-min Rain = 0
KNH1 231134Z 34007KT 13/12 A3005 RMK A01 T01250117  RH  095%=      5-min Rain = 0
KNH1 231135Z 34007KT 13/12 A3005 RMK A01 T01250118  RH  095%=      5-min Rain = 0
KNH1 231136Z 34007KT 13/12 A3005 RMK A01 T01250117  RH  095%=      5-min Rain = 0
KNH1 231137Z 34008KT 13/12 A3005 RMK A01 T01250117  RH  095%=      5-min Rain = 0
KNH1 231138Z 34008KT 12/12 A3005 RMK A01 T01240117  RH  095%=      5-min Rain = 0
KNH1 231139Z 34007KT 12/12 A3005 RMK A01 T01240117  RH  095%=      5-min Rain = 0
KNH1 231140Z 34008KT 12/12 A3005 RMK A01 T01240116  RH  095%=      5-min Rain = 0
KNH1 231141Z 34008KT 12/12 A3005 RMK A01 T01240116  RH  095%=      5-min Rain = 0
KNH1 231142Z 34008KT 12/12 A3005 RMK A01 T01240116  RH  095%=      5-min Rain = 0
KNH1 231143Z 34007KT 12/12 A3005 RMK A01 T01240115  RH  095%=      5-min Rain = 0
KNH1 231144Z 34007KT 12/12 A3005 RMK A01 T01240115  RH  095%=      5-min Rain = 0
KNH1 231145Z 34007KT 12/12 A3005 RMK A01 T01240115  RH  095%=      5-min Rain = 0
KNH1 231146Z 34008KT 12/12 A3005 RMK A01 T01240115  RH  095%=      5-min Rain = 0
KNH1 231147Z 34007KT 12/12 A3006 RMK A01 T01240115  RH  095%=      5-min Rain = 0
KNH1 231148Z 34008KT 12/12 A3006 RMK A01 T01230115  RH  095%=      5-min Rain = 0
KNH1 231149Z 34008KT 12/12 A3006 RMK A01 T01240115  RH  095%=      5-min Rain = 0
KNH1 231150Z 34009KT 12/12 A3006 RMK A01 T01230115  RH  095%=      5-min Rain = 0
KNH1 231151Z 34009KT 12/12 A3006 RMK A01 T01240115  RH  095%=      5-min Rain = 0
KNH1 231152Z 34009KT 12/12 A3006 RMK A01 T01230115  RH  095%=      5-min Rain = 0
KNH1 231153Z 34009KT 12/12 A3005 RMK A01 T01230115  RH  095%=      5-min Rain = 0
KNH1 231154Z 35008KT 12/12 A3005 RMK A01 T01230115  RH  095%=      5-min Rain = 0
KNH1 231155Z 35008KT 12/12 A3005 RMK A01 T01230115  RH  095%=      5-min Rain = 0
KNH1 231156Z 34009KT 12/12 A3005 RMK A01 T01230115  RH  095%=      5-min Rain = 0
KNH1 231157Z 35009KT 12/12 A3005 RMK A01 T01230115  RH  095%=      5-min Rain = 0
KNH1 231158Z 35009KT 12/11 A3005 RMK A01 T01230114  RH  095%=      5-min Rain = 0
KNH1 231159Z 35009KT 12/11 A3006 RMK A01 T01230114  RH  094%=      5-min Rain = 0
KNH1 231200Z 35008KT 12/11 A3006 RMK A01 T01230114  RH  094%=      5-min Rain = 0
KNH1 231201Z 35008KT 12/11 A3005 RMK A01 T01230114  RH  094%=      5-min Rain = 0
KNH1 231202Z 35009KT 12/11 A3005 RMK A01 T01230114  RH  094%=      5-min Rain = 0
KNH1 231203Z 35010KT 12/11 A3006 RMK A01 T01230114  RH  094%=      5-min Rain = 0
KNH1 231204Z 35007KT 12/11 A3006 RMK A01 T01230114  RH  094%=      5-min Rain = 0
KNH1 231205Z 35006KT 12/11 A3006 RMK A01 T01230114  RH  094%=      5-min Rain = 0
KNH1 231206Z 35007KT 12/11 A3006 RMK A01 T01230114  RH  094%=      5-min Rain = 0
KNH1 231207Z 35007KT 12/11 A3006 RMK A01 T01230114  RH  094%=      5-min Rain = 0
KNH1 231208Z 35007KT 12/12 A3006 RMK A01 T01230115  RH  095%=      5-min Rain = 0
KNH1 231209Z 35007KT 12/11 A3006 RMK A01 T01230114  RH  095%=      5-min Rain = 0
KNH1 231210Z 34007KT 12/12 A3006 RMK A01 T01230115  RH  095%=      5-min Rain = 0
KNH1 231211Z 34006KT 12/12 A3006 RMK A01 T01230115  RH  095%=      5-min Rain = 0
KNH1 231212Z 34006KT 12/12 A3007 RMK A01 T01230115  RH  095%=      5-min Rain = 0
KNH1 231213Z 34006KT 12/12 A3007 RMK A01 T01230116  RH  095%=      5-min Rain = 0
KNH1 231214Z 34006KT 12/12 A3007 RMK A01 T01240116  RH  095%=      5-min Rain = 0
KNH1 231215Z 34007KT 12/12 A3007 RMK A01 T01240116  RH  095%=      5-min Rain = 0
KNH1 231216Z 34007KT 12/12 A3007 RMK A01 T01240116  RH  095%=      5-min Rain = 0
KNH1 231217Z 34007KT 12/12 A3007 RMK A01 T01240116  RH  095%=      5-min Rain = 0
KNH1 231218Z 34006KT 12/12 A3007 RMK A01 T01240116  RH  095%=      5-min Rain = 0
KNH1 231219Z 34006KT 13/12 A3007 RMK A01 T01250117  RH  095%=      5-min Rain = 0
KNH1 231220Z 34006KT 13/12 A3007 RMK A01 T01250117  RH  095%=      5-min Rain = 0
KNH1 231221Z 34005KT 13/12 A3008 RMK A01 T01250117  RH  095%=      5-min Rain = 0
KNH1 231222Z 34006KT 13/12 A3008 RMK A01 T01250117  RH  095%=      5-min Rain = 0
KNH1 231223Z 35007KT 13/12 A3008 RMK A01 T01250117  RH  095%=      5-min Rain = 0
KNH1 231224Z 35006KT 13/12 A3008 RMK A01 T01250117  RH  095%=      5-min Rain = 0
KNH1 231225Z 35007KT 13/12 A3008 RMK A01 T01250117  RH  095%=      5-min Rain = 0
KNH1 231226Z 36006KT 13/12 A3008 RMK A01 T01250117  RH  095%=      5-min Rain = 0
KNH1 231227Z 01007KT 13/12 A3008 RMK A01 T01250117  RH  095%=      5-min Rain = 0
KNH1 231228Z 01007KT 13/12 A3007 RMK A01 T01260117  RH  095%=      5-min Rain = 0
KNH1 231229Z 01007KT 13/12 A3007 RMK A01 T01260117  RH  095%=      5-min Rain = 0
KNH1 231230Z 02007KT 13/12 A3007 RMK A01 T01260117  RH  094%=      5-min Rain = 0
KNH1 231231Z 02006KT 13/12 A3007 RMK A01 T01260117  RH  094%=      5-min Rain = 0
KNH1 231232Z 01007KT 13/12 A3007 RMK A01 T01260117  RH  094%=      5-min Rain = 0
KNH1 231233Z 01006KT 13/12 A3007 RMK A01 T01260118  RH  094%=      5-min Rain = 0
KNH1 231234Z 00008KT 13/12 A3007 RMK A01 T01260118  RH  095%=      5-min Rain = 0
KNH1 231235Z 01010KT 13/12 A3006 RMK A01 T01260118  RH  095%=      5-min Rain = 0
KNH1 231236Z 01010KT 13/12 A3006 RMK A01 T01260118  RH  095%=      5-min Rain = 0
KNH1 231237Z 01010KT 13/12 A3006 RMK A01 T01260118  RH  095%=      5-min Rain = 0
KNH1 231238Z 01010KT 13/12 A3006 RMK A01 T01260118  RH  095%=      5-min Rain = 0
KNH1 231239Z 00011KT 13/12 A3006 RMK A01 T01260118  RH  095%=      5-min Rain = 0
KNH1 231240Z 00010KT 13/12 A3005 RMK A01 T01260118  RH  095%=      5-min Rain = 0
KNH1 231241Z 00012KT 13/12 A3005 RMK A01 T01260118  RH  095%=      5-min Rain = 0
KNH1 231242Z 00012KT 13/12 A3005 RMK A01 T01260118  RH  095%=      5-min Rain = 0
KNH1 231243Z 01013KT 13/12 A3005 RMK A01 T01260119  RH  095%=      5-min Rain = 0
KNH1 231244Z 01012KT 13/12 A3005 RMK A01 T01260118  RH  095%=      5-min Rain = 0
KNH1 231245Z 01012KT 13/12 A3005 RMK A01 T01260119  RH  095%=      5-min Rain = 0
KNH1 231246Z 01013KT 13/12 A3005 RMK A01 T01260118  RH  095%=      5-min Rain = 0
KNH1 231247Z 01012KT 13/12 A3005 RMK A01 T01260117  RH  095%=      5-min Rain = 0
KNH1 231248Z 02012KT 13/12 A3005 RMK A01 T01260117  RH  095%=      5-min Rain = 0
KNH1 231249Z 01011G16KT 13/12 A3005 RMK A01 T01260117  RH  095%=      5-min Rain = 0
KNH1 231250Z 01012KT 13/12 A3005 RMK A01 T01260117  RH  095%=      5-min Rain = 0
KNH1 231251Z 01013KT 13/12 A3005 RMK A01 T01260117  RH  095%=      5-min Rain = 0
KNH1 231252Z 01011KT 13/12 A3005 RMK A01 T01260117  RH  095%=      5-min Rain = 0
KNH1 231253Z 02011KT 13/12 A3005 RMK A01 T01260117  RH  095%=      5-min Rain = 0
KNH1 231254Z 01010KT 13/12 A3005 RMK A01 T01260117  RH  095%=      5-min Rain = 0
KNH1 231255Z 02009KT 13/12 A3005 RMK A01 T01260117  RH  094%=      5-min Rain = 0
KNH1 231256Z 02009KT 13/12 A3004 RMK A01 T01260117  RH  095%=      5-min Rain = 0
KNH1 231257Z 02009KT 13/12 A3004 RMK A01 T01260117  RH  095%=      5-min Rain = 0
KNH1 231258Z 01011G16KT 13/12 A3004 RMK A01 T01260118  RH  095%=      5-min Rain = 0
KNH1 231259Z 01011KT 13/12 A3004 RMK A01 T01260117  RH  095%=      5-min Rain = 0
KNH1 231300Z 02012KT 13/12 A3004 RMK A01 T01260118  RH  095%=      5-min Rain = 0
KNH1 231301Z 02010G15KT 13/12 A3004 RMK A01 T01260117  RH  095%=      5-min Rain = 0
KNH1 231302Z 01010KT 13/12 A3004 RMK A01 T01260118  RH  095%=      5-min Rain = 0
KNH1 231303Z 01011KT 13/12 A3004 RMK A01 T01260118  RH  095%=      5-min Rain = 0
KNH1 231304Z 01011KT 13/12 A3004 RMK A01 T01260118  RH  095%=      5-min Rain = 0
KNH1 231305Z 01012KT 13/12 A3004 RMK A01 T01260118  RH  095%=      5-min Rain = 0
KNH1 231306Z 01012KT 13/12 A3004 RMK A01 T01250117  RH  095%=      5-min Rain = 0
KNH1 231307Z 01011KT 13/12 A3004 RMK A01 T01260117  RH  095%=      5-min Rain = 0
KNH1 231308Z 01011KT 13/12 A3004 RMK A01 T01260117  RH  095%=      5-min Rain = 0
KNH1 231309Z 01010KT 13/12 A3004 RMK A01 T01260117  RH  095%=      5-min Rain = 0
KNH1 231310Z 01009KT 13/12 A3005 RMK A01 T01260117  RH  095%=      5-min Rain = 0
KNH1 231311Z 01010G15KT 13/12 A3005 RMK A01 T01260117  RH  095%=      5-min Rain = 0
KNH1 231312Z 01011KT 13/12 A3005 RMK A01 T01260117  RH  094%=      5-min Rain = 0
KNH1 231313Z 01010KT 13/12 A3005 RMK A01 T01260117  RH  094%=      5-min Rain = 0
KNH1 231314Z 02008KT 13/12 A3005 RMK A01 T01260117  RH  094%=      5-min Rain = 0
KNH1 231315Z 02008KT 13/12 A3005 RMK A01 T01260117  RH  094%=      5-min Rain = 0
KNH1 231316Z 03009KT 13/12 A3005 RMK A01 T01270118  RH  095%=      5-min Rain = 0
KNH1 231317Z 03009G14KT 13/12 A3005 RMK A01 T01270118  RH  095%=      5-min Rain = 0
KNH1 231318Z 02011KT 13/12 A3005 RMK A01 T01270118  RH  094%=      5-min Rain = 0
KNH1 231319Z 03009KT 13/12 A3005 RMK A01 T01270118  RH  094%=      5-min Rain = 0
KNH1 231320Z 03010KT 13/12 A3005 RMK A01 T01270118  RH  094%=      5-min Rain = 0
KNH1 231321Z 03010KT 13/12 A3005 RMK A01 T01270118  RH  094%=      5-min Rain = 0
KNH1 231322Z 03009KT 13/12 A3006 RMK A01 T01270118  RH  094%=      5-min Rain = 0
KNH1 231323Z 03009KT 13/12 A3006 RMK A01 T01270118  RH  094%=      5-min Rain = 0
KNH1 231324Z 03010KT 13/12 A3006 RMK A01 T01270118  RH  094%=      5-min Rain = 0
KNH1 231325Z 02009KT 13/12 A3006 RMK A01 T01270118  RH  094%=      5-min Rain = 0
KNH1 231326Z 03011KT 13/12 A3006 RMK A01 T01270118  RH  094%=      5-min Rain = 0
KNH1 231327Z 02011KT 13/12 A3006 RMK A01 T01270117  RH  094%=      5-min Rain = 0
KNH1 231328Z 03009KT 13/12 A3006 RMK A01 T01270118  RH  094%=      5-min Rain = 0
KNH1 231329Z 03011KT 13/12 A3006 RMK A01 T01270118  RH  094%=      5-min Rain = 0
KNH1 231330Z 02011KT 13/12 A3006 RMK A01 T01270118  RH  094%=      5-min Rain = 0
KNH1 231331Z 03011KT 13/12 A3006 RMK A01 T01270118  RH  094%=      5-min Rain = 0
KNH1 231332Z 02008KT 13/12 A3006 RMK A01 T01270118  RH  094%=      5-min Rain = 0
KNH1 231333Z 03009KT 13/12 A3006 RMK A01 T01270118  RH  094%=      5-min Rain = 0
KNH1 231334Z 03008KT 13/12 A3007 RMK A01 T01270118  RH  094%=      5-min Rain = 0
KNH1 231335Z 04006KT 13/12 A3007 RMK A01 T01270118  RH  094%=      5-min Rain = 0
KNH1 231336Z 03005KT 13/12 A3007 RMK A01 T01280118  RH  094%=      5-min Rain = 0
KNH1 231337Z 04006KT 13/12 A3008 RMK A01 T01280118  RH  094%=      5-min Rain = 0
KNH1 231338Z 06005KT 13/12 A3008 RMK A01 T01270118  RH  094%=      5-min Rain = 0.01
KNH1 231339Z 05007KT 13/12 A3008 RMK A01 T01280119  RH  094%=      5-min Rain = 0
KNH1 231340Z 05008KT 13/12 A3007 RMK A01 T01270118  RH  094%=      5-min Rain = 0
KNH1 231341Z 05009KT 13/12 A3007 RMK A01 T01280119  RH  094%=      5-min Rain = 0
KNH1 231342Z 05009KT 13/12 A3007 RMK A01 T01270118  RH  094%=      5-min Rain = 0
KNH1 231343Z 05009KT 13/12 A3007 RMK A01 T01270118  RH  094%=      5-min Rain = 0
KNH1 231344Z 04009KT 13/12 A3006 RMK A01 T01270119  RH  094%=      5-min Rain = 0
KNH1 231345Z 04010KT 13/12 A3006 RMK A01 T01270118  RH  094%=      5-min Rain = 0
KNH1 231346Z 04009KT 13/12 A3006 RMK A01 T01270118  RH  094%=      5-min Rain = 0
KNH1 231347Z 04011KT 13/12 A3006 RMK A01 T01270118  RH  095%=      5-min Rain = 0
KNH1 231348Z 03010KT 13/12 A3006 RMK A01 T01270118  RH  094%=      5-min Rain = 0.01
KNH1 231349Z 04011KT 13/12 A3006 RMK A01 T01270118  RH  094%=      5-min Rain = 0
KNH1 231350Z 04009KT 13/12 A3006 RMK A01 T01270119  RH  094%=      5-min Rain = 0
KNH1 231351Z 04011KT 13/12 A3006 RMK A01 T01270118  RH  094%=      5-min Rain = 0
KNH1 231352Z 04010KT 13/12 A3006 RMK A01 T01270118  RH  094%=      5-min Rain = 0
KNH1 231353Z 05010KT 13/12 A3006 RMK A01 T01270118  RH  094%=      5-min Rain = 0
KNH1 231354Z 04010KT 13/12 A3006 RMK A01 T01270118  RH  094%=      5-min Rain = 0
KNH1 231355Z 04010KT 13/12 A3006 RMK A01 T01270119  RH  094%=      5-min Rain = 0
KNH1 231356Z 05010KT 13/12 A3006 RMK A01 T01270119  RH  095%=      5-min Rain = 0
KNH1 231357Z 04009KT 13/12 A3006 RMK A01 T01270119  RH  095%=      5-min Rain = 0
KNH1 231358Z 05010KT 13/12 A3006 RMK A01 T01270119  RH  095%=      5-min Rain = 0
KNH1 231359Z 05010KT 13/12 A3006 RMK A01 T01270119  RH  094%=      5-min Rain = 0
KNH1 231400Z 05010KT 13/12 A3006 RMK A01 T01270118  RH  094%=      5-min Rain = 0
KNH1 231401Z 05008KT 13/12 A3006 RMK A01 T01270118  RH  094%=      5-min Rain = 0
KNH1 231402Z 05006KT 13/12 A3006 RMK A01 T01270118  RH  094%=      5-min Rain = 0
KNH1 231403Z 05010KT 13/12 A3006 RMK A01 T01270119  RH  094%=      5-min Rain = 0
KNH1 231404Z 06011KT 13/12 A3006 RMK A01 T01270118  RH  094%=      5-min Rain = 0
KNH1 231405Z 06009KT 13/12 A3006 RMK A01 T01270118  RH  094%=      5-min Rain = 0
KNH1 231406Z 06008KT 13/12 A3006 RMK A01 T01280118  RH  094%=      5-min Rain = 0
KNH1 231407Z 05008KT 13/12 A3006 RMK A01 T01280119  RH  094%=      5-min Rain = 0
KNH1 231408Z 05008KT 13/12 A3006 RMK A01 T01280119  RH  094%=      5-min Rain = 0
KNH1 231409Z 05010KT 13/12 A3006 RMK A01 T01280119  RH  094%=      5-min Rain = 0
KNH1 231410Z 06009KT 13/12 A3006 RMK A01 T01280119  RH  094%=      5-min Rain = 0
KNH1 231411Z 05009KT 13/12 A3006 RMK A01 T01280119  RH  094%=      5-min Rain = 0
KNH1 231412Z 05008KT 13/12 A3006 RMK A01 T01290120  RH  094%=      5-min Rain = 0
KNH1 231413Z 05009KT 13/12 A3006 RMK A01 T01290120  RH  094%=      5-min Rain = 0
KNH1 231414Z 05010KT 13/12 A3006 RMK A01 T01290120  RH  094%=      5-min Rain = 0
KNH1 231415Z 05008KT 13/12 A3006 RMK A01 T01300121  RH  094%=      5-min Rain = 0
KNH1 231416Z 05009KT 13/12 A3006 RMK A01 T01310122  RH  094%=      5-min Rain = 0
KNH1 231417Z 05010KT 13/12 A3006 RMK A01 T01310121  RH  094%=      5-min Rain = 0
KNH1 231418Z 05007KT 13/12 A3006 RMK A01 T01320122  RH  094%=      5-min Rain = 0
KNH1 231419Z 05009KT 13/12 A3006 RMK A01 T01320123  RH  094%=      5-min Rain = 0
KNH1 231420Z 04010KT 13/12 A3006 RMK A01 T01320122  RH  094%=      5-min Rain = 0
KNH1 231421Z 04010KT 13/12 A3006 RMK A01 T01330122  RH  093%=      5-min Rain = 0
KNH1 231422Z 04010KT 13/12 A3006 RMK A01 T01330122  RH  093%=      5-min Rain = 0
KNH1 231423Z 05009KT 13/12 A3006 RMK A01 T01330122  RH  093%=      5-min Rain = 0
KNH1 231424Z 05010KT 13/12 A3006 RMK A01 T01330122  RH  093%=      5-min Rain = 0
KNH1 231425Z 05008KT 13/12 A3006 RMK A01 T01320122  RH  093%=      5-min Rain = 0
KNH1 231426Z 06008KT 13/12 A3006 RMK A01 T01330123  RH  094%=      5-min Rain = 0
KNH1 231427Z 05011KT 13/12 A3006 RMK A01 T01330123  RH  093%=      5-min Rain = 0
KNH1 231428Z 06011KT 13/12 A3006 RMK A01 T01330122  RH  093%=      5-min Rain = 0
KNH1 231429Z 05011KT 13/12 A3006 RMK A01 T01330121  RH  093%=      5-min Rain = 0
KNH1 231430Z 05011KT 13/12 A3006 RMK A01 T01330121  RH  092%=      5-min Rain = 0
KNH1 231431Z 05010KT 13/12 A3006 RMK A01 T01330121  RH  092%=      5-min Rain = 0
KNH1 231432Z 05011G16KT 13/12 A3006 RMK A01 T01330121  RH  093%=      5-min Rain = 0
KNH1 231433Z 05011KT 13/12 A3006 RMK A01 T01340121  RH  092%=      5-min Rain = 0
KNH1 231434Z 04011G16KT 13/12 A3006 RMK A01 T01340121  RH  092%=      5-min Rain = 0
KNH1 231435Z 05012KT 13/12 A3006 RMK A01 T01340122  RH  092%=      5-min Rain = 0
KNH1 231436Z 05010KT 13/12 A3006 RMK A01 T01340121  RH  092%=      5-min Rain = 0
KNH1 231437Z 05012G17KT 13/12 A3006 RMK A01 T01340122  RH  092%=      5-min Rain = 0
KNH1 231438Z 05013KT 13/12 A3006 RMK A01 T01340120  RH  091%=      5-min Rain = 0
KNH1 231439Z 04010KT 13/12 A3006 RMK A01 T01340119  RH  091%=      5-min Rain = 0
KNH1 231440Z 05012KT 13/12 A3006 RMK A01 T01330119  RH  091%=      5-min Rain = 0
KNH1 231441Z 05012KT 13/12 A3006 RMK A01 T01330119  RH  091%=      5-min Rain = 0
KNH1 231442Z 05012KT 13/12 A3006 RMK A01 T01330119  RH  091%=      5-min Rain = 0
KNH1 231443Z 05011KT 13/12 A3007 RMK A01 T01330119  RH  091%=      5-min Rain = 0
KNH1 231444Z 04011KT 13/12 A3007 RMK A01 T01330119  RH  091%=      5-min Rain = 0
KNH1 231445Z 04012KT 13/12 A3007 RMK A01 T01330120  RH  092%=      5-min Rain = 0
KNH1 231446Z 05013KT 13/12 A3007 RMK A01 T01340120  RH  092%=      5-min Rain = 0
KNH1 231447Z 04010KT 13/12 A3007 RMK A01 T01340120  RH  092%=      5-min Rain = 0
KNH1 231448Z 05008KT 14/12 A3007 RMK A01 T01350122  RH  092%=      5-min Rain = 0
KNH1 231449Z 05011KT 14/12 A3007 RMK A01 T01350123  RH  092%=      5-min Rain = 0
KNH1 231450Z 04011KT 14/12 A3007 RMK A01 T01350121  RH  091%=      5-min Rain = 0
KNH1 231451Z 04011KT 14/12 A3006 RMK A01 T01350121  RH  091%=      5-min Rain = 0
KNH1 231452Z 05009KT 14/12 A3007 RMK A01 T01350121  RH  091%=      5-min Rain = 0
KNH1 231453Z 04009KT 14/12 A3006 RMK A01 T01360123  RH  092%=      5-min Rain = 0
KNH1 231454Z 05010KT 14/12 A3006 RMK A01 T01370123  RH  091%=      5-min Rain = 0
KNH1 231455Z 05011KT 14/12 A3006 RMK A01 T01370123  RH  091%=      5-min Rain = 0
KNH1 231456Z 05010KT 14/12 A3006 RMK A01 T01370123  RH  091%=      5-min Rain = 0
KNH1 231457Z 04011KT 14/12 A3006 RMK A01 T01370123  RH  091%=      5-min Rain = 0
KNH1 231458Z 04013KT 14/12 A3006 RMK A01 T01370122  RH  091%=      5-min Rain = 0
KNH1 231459Z 05012G17KT 14/12 A3006 RMK A01 T01370121  RH  090%=      5-min Rain = 0
KNH1 231500Z 04014KT 14/12 A3006 RMK A01 T01360121  RH  090%=      5-min Rain = 0
KNH1 231501Z 04013KT 14/12 A3006 RMK A01 T01360120  RH  090%=      5-min Rain = 0
KNH1 231502Z 04012KT 14/12 A3006 RMK A01 T01360121  RH  091%=      5-min Rain = 0
KNH1 231503Z 05010KT 14/12 A3006 RMK A01 T01360121  RH  091%=      5-min Rain = 0
KNH1 231504Z 04012KT 14/12 A3006 RMK A01 T01370121  RH  090%=      5-min Rain = 0
KNH1 231505Z 04010KT 14/12 A3006 RMK A01 T01370121  RH  090%=      5-min Rain = 0
KNH1 231506Z 04011KT 14/12 A3006 RMK A01 T01370122  RH  090%=      5-min Rain = 0
KNH1 231507Z 05008KT 14/12 A3006 RMK A01 T01380123  RH  091%=      5-min Rain = 0
KNH1 231508Z 03010G15KT 14/12 A3006 RMK A01 T01390124  RH  091%=      5-min Rain = 0
KNH1 231509Z 04011KT 14/12 A3006 RMK A01 T01390123  RH  090%=      5-min Rain = 0
KNH1 231510Z 04011KT 14/12 A3006 RMK A01 T01390122  RH  090%=      5-min Rain = 0
KNH1 231511Z 04013KT 14/12 A3006 RMK A01 T01380123  RH  090%=      5-min Rain = 0
KNH1 231512Z 05012KT 14/12 A3006 RMK A01 T01380122  RH  090%=      5-min Rain = 0
KNH1 231513Z 05011KT 14/12 A3006 RMK A01 T01380122  RH  090%=      5-min Rain = 0
KNH1 231514Z 05008KT 14/12 A3006 RMK A01 T01380124  RH  091%=      5-min Rain = 0
KNH1 231515Z 05010KT 14/12 A3006 RMK A01 T01390124  RH  091%=      5-min Rain = 0
KNH1 231516Z 05011KT 14/12 A3006 RMK A01 T01390123  RH  090%=      5-min Rain = 0
KNH1 231517Z 05009KT 14/12 A3006 RMK A01 T01390122  RH  090%=      5-min Rain = 0
KNH1 231518Z 05011KT 14/12 A3006 RMK A01 T01390124  RH  090%=      5-min Rain = 0
KNH1 231519Z 04013KT 14/12 A3006 RMK A01 T01390122  RH  089%=      5-min Rain = 0
KNH1 231520Z 04013KT 14/12 A3006 RMK A01 T01390122  RH  090%=      5-min Rain = 0
KNH1 231521Z 04011KT 14/12 A3006 RMK A01 T01380121  RH  089%=      5-min Rain = 0
KNH1 231522Z 03011KT 14/12 A3006 RMK A01 T01380122  RH  090%=      5-min Rain = 0
KNH1 231523Z 04013KT 14/12 A3006 RMK A01 T01390123  RH  090%=      5-min Rain = 0
KNH1 231524Z 04014KT 14/12 A3006 RMK A01 T01390122  RH  089%=      5-min Rain = 0
KNH1 231525Z 03013KT 14/12 A3006 RMK A01 T01390120  RH  089%=      5-min Rain = 0
KNH1 231526Z 04010KT 14/12 A3007 RMK A01 T01390120  RH  088%=      5-min Rain = 0
KNH1 231527Z 05008KT 14/12 A3007 RMK A01 T01400124  RH  090%=      5-min Rain = 0
KNH1 231528Z 04008KT 14/12 A3007 RMK A01 T01420123  RH  089%=      5-min Rain = 0
KNH1 231529Z 06009KT 14/12 A3007 RMK A01 T01420124  RH  089%=      5-min Rain = 0
KNH1 231530Z 04011KT 14/12 A3007 RMK A01 T01420124  RH  089%=      5-min Rain = 0
KNH1 231531Z 05009KT 14/12 A3007 RMK A01 T01410124  RH  089%=      5-min Rain = 0
KNH1 231532Z 04008KT 14/12 A3007 RMK A01 T01410124  RH  090%=      5-min Rain = 0
KNH1 231533Z 06008G13KT 14/13 A3008 RMK A01 T01410125  RH  090%=      5-min Rain = 0
KNH1 231534Z 06011KT 14/12 A3008 RMK A01 T01410123  RH  089%=      5-min Rain = 0
KNH1 231535Z 06011KT 14/12 A3008 RMK A01 T01400122  RH  088%=      5-min Rain = 0
KNH1 231536Z 05010KT 14/12 A3008 RMK A01 T01400121  RH  088%=      5-min Rain = 0
KNH1 231537Z 05012KT 14/12 A3008 RMK A01 T01390121  RH  088%=      5-min Rain = 0
KNH1 231538Z 05010KT 14/12 A3008 RMK A01 T01390121  RH  089%=      5-min Rain = 0
KNH1 231539Z 05009KT 14/12 A3008 RMK A01 T01390122  RH  089%=      5-min Rain = 0
KNH1 231540Z 04011KT 14/12 A3008 RMK A01 T01390121  RH  089%=      5-min Rain = 0
KNH1 231541Z 05010KT 14/12 A3008 RMK A01 T01390120  RH  088%=      5-min Rain = 0
KNH1 231542Z 05009KT 14/12 A3008 RMK A01 T01390120  RH  088%=      5-min Rain = 0
KNH1 231543Z 05011KT 14/12 A3008 RMK A01 T01390121  RH  088%=      5-min Rain = 0
KNH1 231544Z 04010KT 14/12 A3008 RMK A01 T01390120  RH  088%=      5-min Rain = 0
KNH1 231545Z 04011KT 14/12 A3008 RMK A01 T01390120  RH  088%=      5-min Rain = 0
KNH1 231546Z 04012KT 14/12 A3008 RMK A01 T01390120  RH  088%=      5-min Rain = 0
KNH1 231547Z 04010KT 14/12 A3008 RMK A01 T01390119  RH  087%=      5-min Rain = 0
KNH1 231548Z 05011KT 14/12 A3008 RMK A01 T01390118  RH  087%=      5-min Rain = 0
KNH1 231549Z 04011KT 14/12 A3008 RMK A01 T01390117  RH  087%=      5-min Rain = 0
KNH1 231550Z 04009KT 14/12 A3008 RMK A01 T01400119  RH  087%=      5-min Rain = 0
KNH1 231551Z 04010KT 14/12 A3008 RMK A01 T01410120  RH  087%=      5-min Rain = 0
KNH1 231552Z 05010KT 14/12 A3008 RMK A01 T01410121  RH  087%=      5-min Rain = 0
KNH1 231553Z 05010KT 14/12 A3008 RMK A01 T01420120  RH  087%=      5-min Rain = 0
KNH1 231554Z 06010KT 14/12 A3008 RMK A01 T01410121  RH  087%=      5-min Rain = 0
KNH1 231555Z 05011KT 14/12 A3008 RMK A01 T01410120  RH  087%=      5-min Rain = 0
KNH1 231556Z 04010KT 14/12 A3008 RMK A01 T01410121  RH  088%=      5-min Rain = 0
KNH1 231557Z 04011KT 14/12 A3008 RMK A01 T01410120  RH  087%=      5-min Rain = 0
KNH1 231558Z 05011KT 14/12 A3008 RMK A01 T01410119  RH  087%=      5-min Rain = 0
KNH1 231559Z 05012KT 14/12 A3008 RMK A01 T01410119  RH  087%=      5-min Rain = 0
KNH1 231600Z 05010KT 14/12 A3008 RMK A01 T01410119  RH  087%=      5-min Rain = 0
KNH1 231601Z 06010KT 14/12 A3008 RMK A01 T01410119  RH  087%=      5-min Rain = 0
KNH1 231602Z 05013KT 14/12 A3009 RMK A01 T01410120  RH  087%=      5-min Rain = 0
KNH1 231603Z 06011KT 14/12 A3009 RMK A01 T01410120  RH  087%=      5-min Rain = 0
KNH1 231604Z 06010KT 14/12 A3009 RMK A01 T01410121  RH  088%=      5-min Rain = 0
KNH1 231605Z 06012KT 14/12 A3009 RMK A01 T01410120  RH  087%=      5-min Rain = 0
KNH1 231606Z 05010KT 14/12 A3009 RMK A01 T01410120  RH  087%=      5-min Rain = 0
KNH1 231607Z 04010KT 14/12 A3009 RMK A01 T01410121  RH  087%=      5-min Rain = 0
KNH1 231608Z 04010KT 14/12 A3009 RMK A01 T01410120  RH  087%=      5-min Rain = 0
KNH1 231609Z 04011KT 14/12 A3009 RMK A01 T01410118  RH  086%=      5-min Rain = 0
KNH1 231610Z 05010KT 14/12 A3009 RMK A01 T01410118  RH  086%=      5-min Rain = 0
KNH1 231611Z 05009KT 14/12 A3009 RMK A01 T01410120  RH  087%=      5-min Rain = 0
KNH1 231612Z 06008G13KT 14/12 A3009 RMK A01 T01410121  RH  088%=      5-min Rain = 0
KNH1 231613Z 04011KT 14/12 A3009 RMK A01 T01420122  RH  088%=      5-min Rain = 0
KNH1 231614Z 04010KT 14/12 A3009 RMK A01 T01420122  RH  088%=      5-min Rain = 0
KNH1 231615Z 04009KT 14/12 A3009 RMK A01 T01410122  RH  088%=      5-min Rain = 0
KNH1 231616Z 04007KT 14/12 A3009 RMK A01 T01410123  RH  089%=      5-min Rain = 0
KNH1 231617Z 05007KT 14/13 A3009 RMK A01 T01420125  RH  090%=      5-min Rain = 0
KNH1 231618Z 05009KT 14/12 A3009 RMK A01 T01430124  RH  088%=      5-min Rain = 0
KNH1 231619Z 05009KT 14/12 A3009 RMK A01 T01440122  RH  087%=      5-min Rain = 0
KNH1 231620Z 05012KT 14/12 A3009 RMK A01 T01440122  RH  087%=      5-min Rain = 0
KNH1 231621Z 05010KT 14/12 A3008 RMK A01 T01440121  RH  086%=      5-min Rain = 0
KNH1 231622Z 05009KT 14/12 A3008 RMK A01 T01440122  RH  087%=      5-min Rain = 0
KNH1 231623Z 05010KT 14/12 A3008 RMK A01 T01440122  RH  087%=      5-min Rain = 0
KNH1 231624Z 05009KT 14/12 A3008 RMK A01 T01440122  RH  087%=      5-min Rain = 0
KNH1 231625Z 05011KT 14/12 A3008 RMK A01 T01440121  RH  086%=      5-min Rain = 0
KNH1 231626Z 05010KT 14/12 A3008 RMK A01 T01440121  RH  086%=      5-min Rain = 0
KNH1 231627Z 05011KT 15/12 A3008 RMK A01 T01450121  RH  086%=      5-min Rain = 0
KNH1 231628Z 04009KT 14/12 A3008 RMK A01 T01440121  RH  086%=      5-min Rain = 0
KNH1 231629Z 04008KT 15/12 A3008 RMK A01 T01450123  RH  087%=      5-min Rain = 0
KNH1 231630Z 05008KT 15/12 A3009 RMK A01 T01460123  RH  087%=      5-min Rain = 0
KNH1 231631Z 04008G13KT 15/12 A3008 RMK A01 T01460124  RH  087%=      5-min Rain = 0
KNH1 231632Z 03008KT 15/12 A3008 RMK A01 T01470123  RH  086%=      5-min Rain = 0
KNH1 231633Z 04009KT 15/12 A3008 RMK A01 T01470124  RH  086%=      5-min Rain = 0
KNH1 231634Z 03007KT 15/13 A3008 RMK A01 T01480125  RH  087%=      5-min Rain = 0
KNH1 231635Z 03011KT 15/13 A3008 RMK A01 T01480125  RH  086%=      5-min Rain = 0
KNH1 231636Z 03010KT 15/12 A3008 RMK A01 T01470123  RH  086%=      5-min Rain = 0
KNH1 231637Z 03012KT 15/12 A3008 RMK A01 T01470124  RH  086%=      5-min Rain = 0
KNH1 231638Z 03011KT 15/12 A3008 RMK A01 T01460122  RH  086%=      5-min Rain = 0
KNH1 231639Z 04009KT 15/12 A3008 RMK A01 T01460124  RH  087%=      5-min Rain = 0
KNH1 231640Z 04010KT 15/13 A3008 RMK A01 T01480126  RH  087%=      5-min Rain = 0
KNH1 231641Z 04009KT 15/13 A3008 RMK A01 T01480125  RH  086%=      5-min Rain = 0
KNH1 231642Z 05009KT 15/13 A3008 RMK A01 T01500128  RH  086%=      5-min Rain = 0
KNH1 231643Z 05008KT 15/13 A3008 RMK A01 T01510126  RH  085%=      5-min Rain = 0
KNH1 231644Z 05010KT 15/13 A3008 RMK A01 T01510126  RH  085%=      5-min Rain = 0
KNH1 231645Z 05009KT 15/13 A3008 RMK A01 T01510127  RH  085%=      5-min Rain = 0
KNH1 231646Z 05008KT 15/13 A3007 RMK A01 T01520127  RH  085%=      5-min Rain = 0
KNH1 231647Z 03009KT 15/13 A3007 RMK A01 T01540129  RH  085%=      5-min Rain = 0
KNH1 231648Z 05010KT 15/13 A3007 RMK A01 T01540127  RH  084%=      5-min Rain = 0
KNH1 231649Z 04009KT 15/12 A3007 RMK A01 T01540124  RH  082%=      5-min Rain = 0
KNH1 231650Z 05010KT 15/12 A3007 RMK A01 T01540124  RH  083%=      5-min Rain = 0
KNH1 231651Z 05008KT 16/13 A3007 RMK A01 T01550128  RH  084%=      5-min Rain = 0
KNH1 231652Z 05009KT 16/13 A3007 RMK A01 T01570129  RH  083%=      5-min Rain = 0
KNH1 231653Z 06009KT 16/13 A3007 RMK A01 T01590131  RH  084%=      5-min Rain = 0
KNH1 231654Z 05010KT 16/13 A3007 RMK A01 T01620130  RH  082%=      5-min Rain = 0
KNH1 231655Z 04011KT 16/13 A3007 RMK A01 T01640129  RH  080%=      5-min Rain = 0
KNH1 231656Z 06009KT 16/13 A3007 RMK A01 T01640129  RH  079%=      5-min Rain = 0
KNH1 231657Z 06011KT 16/13 A3007 RMK A01 T01640128  RH  079%=      5-min Rain = 0
KNH1 231658Z 06011KT 16/12 A3007 RMK A01 T01610122  RH  077%=      5-min Rain = 0
KNH1 231659Z 05011KT 16/12 A3007 RMK A01 T01570119  RH  078%=      5-min Rain = 0
KNH1 231700Z 06009KT 16/12 A3008 RMK A01 T01560123  RH  081%=      5-min Rain = 0
KNH1 231701Z 05007KT 16/13 A3008 RMK A01 T01560126  RH  082%=      5-min Rain = 0
KNH1 231702Z 04007KT 16/13 A3008 RMK A01 T01590132  RH  084%=      5-min Rain = 0
KNH1 231703Z 05010KT 16/13 A3008 RMK A01 T01610128  RH  081%=      5-min Rain = 0
KNH1 231704Z 07010KT 16/13 A3008 RMK A01 T01600127  RH  081%=      5-min Rain = 0
KNH1 231705Z 05009KT 16/13 A3008 RMK A01 T01590126  RH  081%=      5-min Rain = 0
KNH1 231706Z 06009KT 16/13 A3008 RMK A01 T01580125  RH  081%=      5-min Rain = 0
KNH1 231707Z 06008KT 16/12 A3008 RMK A01 T01590124  RH  080%=      5-min Rain = 0
KNH1 231708Z 06007KT 16/13 A3008 RMK A01 T01590126  RH  081%=      5-min Rain = 0
KNH1 231709Z 06009KT 16/13 A3008 RMK A01 T01590127  RH  081%=      5-min Rain = 0
KNH1 231710Z 07008KT 16/13 A3008 RMK A01 T01580125  RH  081%=      5-min Rain = 0
KNH1 231711Z 06010KT 16/13 A3008 RMK A01 T01590125  RH  080%=      5-min Rain = 0
KNH1 231712Z 07007KT 16/13 A3008 RMK A01 T01580125  RH  081%=      5-min Rain = 0
KNH1 231713Z 07008KT 16/13 A3008 RMK A01 T01590128  RH  082%=      5-min Rain = 0
KNH1 231714Z 06007KT 16/13 A3008 RMK A01 T01600129  RH  082%=      5-min Rain = 0
KNH1 231715Z 06009KT 16/13 A3008 RMK A01 T01600126  RH  080%=      5-min Rain = 0
KNH1 231716Z 07008KT 16/13 A3008 RMK A01 T01600126  RH  080%=      5-min Rain = 0
KNH1 231717Z 07008KT 16/13 A3008 RMK A01 T01610128  RH  081%=      5-min Rain = 0
KNH1 231718Z 07006KT 16/13 A3008 RMK A01 T01600132  RH  083%=      5-min Rain = 0
KNH1 231719Z 07008KT 16/13 A3008 RMK A01 T01620130  RH  082%=      5-min Rain = 0
KNH1 231720Z 07008KT 16/13 A3008 RMK A01 T01620131  RH  082%=      5-min Rain = 0
KNH1 231721Z 07008KT 16/13 A3008 RMK A01 T01620128  RH  080%=      5-min Rain = 0
KNH1 231722Z 08009KT 16/13 A3008 RMK A01 T01620126  RH  079%=      5-min Rain = 0
KNH1 231723Z 06008KT 16/13 A3008 RMK A01 T01610126  RH  080%=      5-min Rain = 0
KNH1 231724Z 05008KT 16/13 A3008 RMK A01 T01610127  RH  080%=      5-min Rain = 0
KNH1 231725Z 05008KT 16/13 A3007 RMK A01 T01600125  RH  079%=      5-min Rain = 0
KNH1 231726Z 06006KT 16/13 A3007 RMK A01 T01600129  RH  082%=      5-min Rain = 0
KNH1 231727Z 05008KT 16/13 A3007 RMK A01 T01620128  RH  080%=      5-min Rain = 0
KNH1 231728Z 05010KT 16/13 A3007 RMK A01 T01620126  RH  079%=      5-min Rain = 0
KNH1 231729Z 05008KT 16/13 A3007 RMK A01 T01610126  RH  080%=      5-min Rain = 0
KNH1 231730Z 04009KT 16/13 A3007 RMK A01 T01630128  RH  080%=      5-min Rain = 0
KNH1 231731Z 05007KT 16/13 A3007 RMK A01 T01640129  RH  079%=      5-min Rain = 0
KNH1 231732Z 05007KT 17/13 A3007 RMK A01 T01650129  RH  080%=      5-min Rain = 0
KNH1 231733Z 06010KT 17/13 A3007 RMK A01 T01660130  RH  079%=      5-min Rain = 0
KNH1 231734Z 06010KT 17/13 A3007 RMK A01 T01670129  RH  078%=      5-min Rain = 0
KNH1 231735Z 05009KT 17/13 A3007 RMK A01 T01670130  RH  079%=      5-min Rain = 0
KNH1 231736Z 06011KT 17/13 A3007 RMK A01 T01660128  RH  078%=      5-min Rain = 0
KNH1 231737Z 06011KT 16/13 A3007 RMK A01 T01640126  RH  078%=      5-min Rain = 0
KNH1 231738Z 04010KT 16/13 A3007 RMK A01 T01620127  RH  079%=      5-min Rain = 0
KNH1 231739Z 04012KT 16/13 A3007 RMK A01 T01620125  RH  079%=      5-min Rain = 0
KNH1 231740Z 04011KT 16/13 A3006 RMK A01 T01630126  RH  079%=      5-min Rain = 0
KNH1 231741Z 06010KT 17/13 A3007 RMK A01 T01650130  RH  080%=      5-min Rain = 0
KNH1 231742Z 06012KT 17/13 A3006 RMK A01 T01670128  RH  078%=      5-min Rain = 0
KNH1 231743Z 05010KT 17/13 A3006 RMK A01 T01660128  RH  078%=      5-min Rain = 0
KNH1 231744Z 06010KT 17/13 A3006 RMK A01 T01660127  RH  078%=      5-min Rain = 0
KNH1 231745Z 04010KT 17/13 A3006 RMK A01 T01670130  RH  079%=      5-min Rain = 0
KNH1 231746Z 05010KT 17/13 A3007 RMK A01 T01700132  RH  078%=      5-min Rain = 0
KNH1 231747Z 06011KT 17/13 A3007 RMK A01 T01710130  RH  077%=      5-min Rain = 0
KNH1 231748Z 07010KT 17/13 A3007 RMK A01 T01690127  RH  076%=      5-min Rain = 0
KNH1 231749Z 05011KT 17/13 A3007 RMK A01 T01670128  RH  078%=      5-min Rain = 0
KNH1 231750Z 05009KT 17/13 A3007 RMK A01 T01650128  RH  079%=      5-min Rain = 0
KNH1 231751Z 06010KT 16/13 A3007 RMK A01 T01640128  RH  079%=      5-min Rain = 0
KNH1 231752Z 06010KT 16/12 A3007 RMK A01 T01640124  RH  077%=      5-min Rain = 0
KNH1 231753Z 05010KT 16/13 A3007 RMK A01 T01630127  RH  079%=      5-min Rain = 0
KNH1 231754Z 06010KT 17/13 A3007 RMK A01 T01650126  RH  078%=      5-min Rain = 0
KNH1 231755Z 06009KT 17/13 A3007 RMK A01 T01660125  RH  077%=      5-min Rain = 0
KNH1 231756Z 05008KT 17/13 A3007 RMK A01 T01660127  RH  077%=      5-min Rain = 0
KNH1 231757Z 04010KT 17/13 A3007 RMK A01 T01670126  RH  077%=      5-min Rain = 0
KNH1 231758Z 05010KT 17/13 A3007 RMK A01 T01700129  RH  077%=      5-min Rain = 0
KNH1 231759Z 05009KT 17/12 A3007 RMK A01 T01700124  RH  074%=      5-min Rain = 0
KNH1 231800Z 07008KT 17/13 A3007 RMK A01 T01700127  RH  076%=      5-min Rain = 0
KNH1 231801Z 06006KT 17/13 A3007 RMK A01 T01720130  RH  076%=      5-min Rain = 0
KNH1 231802Z 06009KT 17/13 A3007 RMK A01 T01730127  RH  074%=      5-min Rain = 0
KNH1 231803Z 05008KT 17/12 A3007 RMK A01 T01720124  RH  073%=      5-min Rain = 0
KNH1 231804Z 07008KT 17/13 A3007 RMK A01 T01720126  RH  074%=      5-min Rain = 0
KNH1 231805Z 07009KT 17/12 A3007 RMK A01 T01720124  RH  073%=      5-min Rain = 0
KNH1 231806Z 07010KT 17/13 A3007 RMK A01 T01710127  RH  075%=      5-min Rain = 0
KNH1 231807Z 06009KT 17/13 A3007 RMK A01 T01710126  RH  075%=      5-min Rain = 0
KNH1 231808Z 06007KT 17/13 A3006 RMK A01 T01700126  RH  075%=      5-min Rain = 0
KNH1 231809Z 06008KT 17/13 A3006 RMK A01 T01720134  RH  078%=      5-min Rain = 0
KNH1 231810Z 05008KT 18/13 A3006 RMK A01 T01760129  RH  074%=      5-min Rain = 0
KNH1 231811Z 06010KT 18/13 A3006 RMK A01 T01770131  RH  074%=      5-min Rain = 0
KNH1 231812Z 05009KT 18/13 A3007 RMK A01 T01760125  RH  072%=      5-min Rain = 0
KNH1 231813Z 07008KT 17/13 A3007 RMK A01 T01740126  RH  073%=      5-min Rain = 0
KNH1 231814Z 07008KT 17/13 A3006 RMK A01 T01730128  RH  075%=      5-min Rain = 0
KNH1 231815Z 05008KT 17/13 A3006 RMK A01 T01730130  RH  076%=      5-min Rain = 0
KNH1 231816Z 05008KT 17/13 A3006 RMK A01 T01730129  RH  075%=      5-min Rain = 0
KNH1 231817Z 07008KT 17/13 A3006 RMK A01 T01740130  RH  075%=      5-min Rain = 0
KNH1 231818Z 07011KT 18/13 A3006 RMK A01 T01770130  RH  074%=      5-min Rain = 0
KNH1 231819Z 07011KT 18/13 A3006 RMK A01 T01780128  RH  072%=      5-min Rain = 0
KNH1 231820Z 07009KT 18/12 A3006 RMK A01 T01760124  RH  071%=      5-min Rain = 0
KNH1 231821Z 08009KT 18/13 A3006 RMK A01 T01750128  RH  074%=      5-min Rain = 0
KNH1 231822Z 07007KT 18/13 A3006 RMK A01 T01760128  RH  073%=      5-min Rain = 0
KNH1 231823Z 08009KT 18/13 A3006 RMK A01 T01760125  RH  072%=      5-min Rain = 0
KNH1 231824Z 08008KT 17/12 A3006 RMK A01 T01740118  RH  069%=      5-min Rain = 0
KNH1 231825Z 08009KT 17/12 A3006 RMK A01 T01730120  RH  071%=      5-min Rain = 0
KNH1 231826Z 08009KT 18/12 A3006 RMK A01 T01750122  RH  071%=      5-min Rain = 0
KNH1 231827Z 09008KT 18/12 A3006 RMK A01 T01750124  RH  072%=      5-min Rain = 0
KNH1 231828Z 07010KT 18/13 A3006 RMK A01 T01770126  RH  072%=      5-min Rain = 0
KNH1 231829Z 07009KT 18/12 A3006 RMK A01 T01760124  RH  071%=      5-min Rain = 0
KNH1 231830Z 06009KT 18/13 A3006 RMK A01 T01750125  RH  072%=      5-min Rain = 0
KNH1 231831Z 06009KT 18/13 A3006 RMK A01 T01750125  RH  072%=      5-min Rain = 0
KNH1 231832Z 07008KT 18/13 A3006 RMK A01 T01750126  RH  073%=      5-min Rain = 0
KNH1 231833Z 08009KT 18/13 A3006 RMK A01 T01750126  RH  073%=      5-min Rain = 0
KNH1 231834Z 07008KT 18/13 A3006 RMK A01 T01780125  RH  071%=      5-min Rain = 0
KNH1 231835Z 08008KT 18/12 A3006 RMK A01 T01780118  RH  068%=      5-min Rain = 0
KNH1 231836Z 05009KT 18/12 A3006 RMK A01 T01770120  RH  069%=      5-min Rain = 0
KNH1 231837Z 05008KT 18/12 A3005 RMK A01 T01770124  RH  071%=      5-min Rain = 0
KNH1 231838Z 05009KT 18/12 A3005 RMK A01 T01760123  RH  071%=      5-min Rain = 0
KNH1 231839Z 05009KT 18/13 A3005 RMK A01 T01760125  RH  072%=      5-min Rain = 0
KNH1 231840Z 07008KT 18/13 A3005 RMK A01 T01750125  RH  072%=      5-min Rain = 0
KNH1 231841Z 08009KT 18/13 A3005 RMK A01 T01760127  RH  073%=      5-min Rain = 0
KNH1 231842Z 08009KT 18/12 A3006 RMK A01 T01760123  RH  071%=      5-min Rain = 0
KNH1 231843Z 06006KT 18/13 A3006 RMK A01 T01760125  RH  072%=      5-min Rain = 0
KNH1 231844Z 04006KT 18/13 A3006 RMK A01 T01760130  RH  075%=      5-min Rain = 0
KNH1 231845Z 04009KT 18/13 A3006 RMK A01 T01790133  RH  075%=      5-min Rain = 0
KNH1 231846Z 05008KT 18/13 A3006 RMK A01 T01790130  RH  073%=      5-min Rain = 0
KNH1 231847Z 05009KT 18/13 A3006 RMK A01 T01780128  RH  073%=      5-min Rain = 0
KNH1 231848Z 05007KT 18/13 A3006 RMK A01 T01770126  RH  072%=      5-min Rain = 0
KNH1 231849Z 05007KT 18/13 A3005 RMK A01 T01760125  RH  072%=      5-min Rain = 0
KNH1 231850Z 05005KT 18/13 A3005 RMK A01 T01750130  RH  075%=      5-min Rain = 0
KNH1 231851Z 05007KT 18/13 A3006 RMK A01 T01750130  RH  075%=      5-min Rain = 0
KNH1 231852Z 06006KT 18/13 A3006 RMK A01 T01750127  RH  073%=      5-min Rain = 0
KNH1 231853Z 05004KT 17/13 A3006 RMK A01 T01720125  RH  074%=      5-min Rain = 0
KNH1 231854Z 05007KT 17/13 A3006 RMK A01 T01720130  RH  077%=      5-min Rain = 0
KNH1 231855Z 06007KT 17/13 A3005 RMK A01 T01730131  RH  076%=      5-min Rain = 0
KNH1 231856Z 05008KT 17/13 A3005 RMK A01 T01740126  RH  074%=      5-min Rain = 0
KNH1 231857Z 05009KT 17/12 A3005 RMK A01 T01730122  RH  072%=      5-min Rain = 0
KNH1 231858Z 04008KT 17/12 A3006 RMK A01 T01720123  RH  073%=      5-min Rain = 0
KNH1 231859Z 06006KT 17/12 A3006 RMK A01 T01720123  RH  073%=      5-min Rain = 0
KNH1 231900Z 05006KT 17/13 A3006 RMK A01 T01710126  RH  074%=      5-min Rain = 0
KNH1 231901Z 05009KT 17/13 A3006 RMK A01 T01720127  RH  075%=      5-min Rain = 0
KNH1 231902Z 05008KT 17/13 A3005 RMK A01 T01720125  RH  074%=      5-min Rain = 0
KNH1 231903Z 06008KT 17/13 A3005 RMK A01 T01710127  RH  075%=      5-min Rain = 0
KNH1 231904Z 04007KT 17/13 A3005 RMK A01 T01710126  RH  074%=      5-min Rain = 0
KNH1 231905Z 05010KT 17/13 A3005 RMK A01 T01710126  RH  075%=      5-min Rain = 0
KNH1 231906Z 05010KT 17/13 A3005 RMK A01 T01710125  RH  074%=      5-min Rain = 0
KNH1 231907Z 05010KT 17/12 A3005 RMK A01 T01700121  RH  073%=      5-min Rain = 0
KNH1 231908Z 07008KT 17/12 A3005 RMK A01 T01690121  RH  073%=      5-min Rain = 0
KNH1 231909Z 06008KT 17/13 A3005 RMK A01 T01700126  RH  075%=      5-min Rain = 0
KNH1 231910Z 07007KT 17/13 A3005 RMK A01 T01700129  RH  076%=      5-min Rain = 0
KNH1 231911Z 07007KT 17/13 A3006 RMK A01 T01710130  RH  077%=      5-min Rain = 0
KNH1 231912Z 07007KT 17/13 A3006 RMK A01 T01720130  RH  076%=      5-min Rain = 0
KNH1 231913Z 07009KT 17/13 A3006 RMK A01 T01720126  RH  074%=      5-min Rain = 0
KNH1 231914Z 07009KT 17/12 A3006 RMK A01 T01720122  RH  073%=      5-min Rain = 0
KNH1 231915Z 07007KT 17/13 A3005 RMK A01 T01710126  RH  075%=      5-min Rain = 0
KNH1 231916Z 07008KT 17/13 A3005 RMK A01 T01710128  RH  076%=      5-min Rain = 0
KNH1 231917Z 08008KT 17/13 A3005 RMK A01 T01730127  RH  074%=      5-min Rain = 0
KNH1 231918Z 07009KT 17/13 A3005 RMK A01 T01730125  RH  073%=      5-min Rain = 0
KNH1 231919Z 06006KT 17/13 A3005 RMK A01 T01730125  RH  073%=      5-min Rain = 0
KNH1 231920Z 07008KT 17/13 A3005 RMK A01 T01730125  RH  073%=      5-min Rain = 0
KNH1 231921Z 06008KT 17/13 A3005 RMK A01 T01730127  RH  074%=      5-min Rain = 0
KNH1 231922Z 07008KT 17/13 A3005 RMK A01 T01730127  RH  074%=      5-min Rain = 0
KNH1 231923Z 06006KT 17/13 A3005 RMK A01 T01740131  RH  076%=      5-min Rain = 0
KNH1 231924Z 07006KT 18/13 A3005 RMK A01 T01750130  RH  075%=      5-min Rain = 0
KNH1 231925Z 07008KT 18/13 A3005 RMK A01 T01760131  RH  075%=      5-min Rain = 0
KNH1 231926Z 07008KT 18/13 A3005 RMK A01 T01760128  RH  073%=      5-min Rain = 0
KNH1 231927Z 06007KT 18/13 A3005 RMK A01 T01760128  RH  073%=      5-min Rain = 0
KNH1 231928Z 07008KT 18/13 A3005 RMK A01 T01750127  RH  073%=      5-min Rain = 0
KNH1 231929Z 07008KT 18/13 A3005 RMK A01 T01760126  RH  073%=      5-min Rain = 0
KNH1 231930Z 07009KT 18/13 A3005 RMK A01 T01760125  RH  072%=      5-min Rain = 0
KNH1 231931Z 06008KT 18/13 A3005 RMK A01 T01760125  RH  072%=      5-min Rain = 0
KNH1 231932Z 07007KT 18/13 A3005 RMK A01 T01770125  RH  072%=      5-min Rain = 0
KNH1 231933Z 08008KT 18/12 A3005 RMK A01 T01770122  RH  070%=      5-min Rain = 0
KNH1 231934Z 07006KT 18/12 A3005 RMK A01 T01760123  RH  071%=      5-min Rain = 0
KNH1 231935Z 08007KT 18/13 A3005 RMK A01 T01760126  RH  072%=      5-min Rain = 0
KNH1 231936Z 07008KT 18/13 A3005 RMK A01 T01770125  RH  071%=      5-min Rain = 0
KNH1 231937Z 08009KT 18/13 A3005 RMK A01 T01760127  RH  073%=      5-min Rain = 0
KNH1 231938Z 08009KT 18/13 A3005 RMK A01 T01750127  RH  073%=      5-min Rain = 0
KNH1 231939Z 07006KT 17/13 A3005 RMK A01 T01740129  RH  075%=      5-min Rain = 0
KNH1 231940Z 07007KT 18/13 A3005 RMK A01 T01750130  RH  075%=      5-min Rain = 0
KNH1 231941Z 07007KT 18/13 A3005 RMK A01 T01760133  RH  076%=      5-min Rain = 0
KNH1 231942Z 06007KT 18/13 A3005 RMK A01 T01770133  RH  075%=      5-min Rain = 0
KNH1 231943Z 07007KT 18/13 A3005 RMK A01 T01770130  RH  074%=      5-min Rain = 0
KNH1 231944Z 07007KT 18/13 A3005 RMK A01 T01770131  RH  075%=      5-min Rain = 0
KNH1 231945Z 07009KT 18/13 A3005 RMK A01 T01760130  RH  074%=      5-min Rain = 0
KNH1 231946Z 08007KT 18/13 A3005 RMK A01 T01750132  RH  076%=      5-min Rain = 0
KNH1 231947Z 07008KT 17/13 A3005 RMK A01 T01740129  RH  075%=      5-min Rain = 0
KNH1 231948Z 06009KT 17/13 A3005 RMK A01 T01730129  RH  075%=      5-min Rain = 0
KNH1 231949Z 06008KT 17/13 A3005 RMK A01 T01720127  RH  075%=      5-min Rain = 0
KNH1 231950Z 06008KT 17/13 A3005 RMK A01 T01720130  RH  076%=      5-min Rain = 0
KNH1 231951Z 06009KT 17/13 A3005 RMK A01 T01720129  RH  076%=      5-min Rain = 0
KNH1 231952Z 06009KT 17/13 A3005 RMK A01 T01720128  RH  075%=      5-min Rain = 0
KNH1 231953Z 06007KT 17/13 A3005 RMK A01 T01710126  RH  075%=      5-min Rain = 0
KNH1 231954Z 07008KT 17/13 A3005 RMK A01 T01700130  RH  077%=      5-min Rain = 0
KNH1 231955Z 07011KT 17/13 A3005 RMK A01 T01710129  RH  076%=      5-min Rain = 0
KNH1 231956Z 07008KT 17/13 A3005 RMK A01 T01710129  RH  076%=      5-min Rain = 0
KNH1 231957Z 07010KT 17/13 A3005 RMK A01 T01710130  RH  077%=      5-min Rain = 0
KNH1 231958Z 07010KT 17/13 A3005 RMK A01 T01710127  RH  075%=      5-min Rain = 0
KNH1 231959Z 07009KT 17/13 A3005 RMK A01 T01710129  RH  076%=      5-min Rain = 0
KNH1 232000Z 07010KT 17/13 A3005 RMK A01 T01700130  RH  077%=      5-min Rain = 0
KNH1 232001Z 08010KT 17/13 A3005 RMK A01 T01690130  RH  078%=      5-min Rain = 0
KNH1 232002Z 08009KT 17/13 A3005 RMK A01 T01680131  RH  079%=      5-min Rain = 0
KNH1 232003Z 08008KT 17/13 A3005 RMK A01 T01680131  RH  079%=      5-min Rain = 0
KNH1 232004Z 08008KT 17/13 A3005 RMK A01 T01680133  RH  080%=      5-min Rain = 0
KNH1 232005Z 08008KT 17/13 A3005 RMK A01 T01680133  RH  080%=      5-min Rain = 0
KNH1 232006Z 08008KT 17/13 A3005 RMK A01 T01680131  RH  079%=      5-min Rain = 0
KNH1 232007Z 07007KT 17/13 A3005 RMK A01 T01680133  RH  080%=      5-min Rain = 0
KNH1 232008Z 07008KT 17/13 A3005 RMK A01 T01680131  RH  079%=      5-min Rain = 0
KNH1 232009Z 06010KT 17/13 A3005 RMK A01 T01690132  RH  079%=      5-min Rain = 0
KNH1 232010Z 07007KT 17/13 A3005 RMK A01 T01690131  RH  078%=      5-min Rain = 0
KNH1 232011Z 07009KT 17/13 A3005 RMK A01 T01690134  RH  080%=      5-min Rain = 0
KNH1 232012Z 06007KT 17/13 A3005 RMK A01 T01690133  RH  079%=      5-min Rain = 0
KNH1 232013Z 06007KT 17/13 A3005 RMK A01 T01700134  RH  079%=      5-min Rain = 0
KNH1 232014Z 05009KT 17/13 A3005 RMK A01 T01700132  RH  078%=      5-min Rain = 0
KNH1 232015Z 05008KT 17/13 A3005 RMK A01 T01670134  RH  080%=      5-min Rain = 0
KNH1 232016Z 03010KT 17/14 A3005 RMK A01 T01660135  RH  082%=      5-min Rain = 0
KNH1 232017Z 04012KT 17/13 A3005 RMK A01 T01650134  RH  082%=      5-min Rain = 0
KNH1 232018Z 04012KT 16/13 A3005 RMK A01 T01630134  RH  083%=      5-min Rain = 0
KNH1 232019Z 03012KT 16/13 A3005 RMK A01 T01620134  RH  083%=      5-min Rain = 0
KNH1 232020Z 04009G14KT 16/13 A3005 RMK A01 T01620134  RH  083%=      5-min Rain = 0
KNH1 232021Z 04013KT 16/13 A3005 RMK A01 T01610134  RH  084%=      5-min Rain = 0
KNH1 232022Z 04012G18KT 16/13 A3005 RMK A01 T01610133  RH  084%=      5-min Rain = 0
KNH1 232023Z 03012KT 16/13 A3005 RMK A01 T01610134  RH  084%=      5-min Rain = 0
KNH1 232024Z 04011KT 16/13 A3005 RMK A01 T01610134  RH  084%=      5-min Rain = 0
KNH1 232025Z 04010G15KT 16/13 A3005 RMK A01 T01610132  RH  083%=      5-min Rain = 0
KNH1 232026Z 04011KT 16/13 A3005 RMK A01 T01600134  RH  084%=      5-min Rain = 0
KNH1 232027Z 03010G17KT 16/13 A3005 RMK A01 T01600133  RH  084%=      5-min Rain = 0
KNH1 232028Z 04013KT 16/13 A3005 RMK A01 T01590131  RH  083%=      5-min Rain = 0
KNH1 232029Z 04011KT 16/13 A3005 RMK A01 T01570130  RH  084%=      5-min Rain = 0
KNH1 232030Z 03011KT 16/13 A3005 RMK A01 T01560129  RH  084%=      5-min Rain = 0
KNH1 232031Z 03011KT 16/13 A3005 RMK A01 T01560131  RH  085%=      5-min Rain = 0
KNH1 232032Z 02012KT 16/13 A3005 RMK A01 T01560131  RH  085%=      5-min Rain = 0
KNH1 232033Z 04013KT 16/13 A3005 RMK A01 T01570131  RH  085%=      5-min Rain = 0
KNH1 232034Z 05013KT 16/13 A3004 RMK A01 T01580130  RH  084%=      5-min Rain = 0
KNH1 232035Z 04012KT 16/13 A3005 RMK A01 T01580130  RH  084%=      5-min Rain = 0
KNH1 232036Z 03013KT 16/13 A3004 RMK A01 T01570129  RH  083%=      5-min Rain = 0
KNH1 232037Z 03013KT 16/13 A3004 RMK A01 T01570130  RH  084%=      5-min Rain = 0
KNH1 232038Z 03015KT 16/13 A3004 RMK A01 T01570130  RH  084%=      5-min Rain = 0
KNH1 232039Z 03012KT 16/13 A3004 RMK A01 T01570129  RH  083%=      5-min Rain = 0
KNH1 232040Z 04011KT 16/13 A3004 RMK A01 T01570130  RH  084%=      5-min Rain = 0
KNH1 232041Z 04015KT 16/13 A3004 RMK A01 T01580130  RH  083%=      5-min Rain = 0
KNH1 232042Z 04010KT 16/13 A3004 RMK A01 T01580130  RH  083%=      5-min Rain = 0
KNH1 232043Z 03012KT 16/13 A3004 RMK A01 T01580131  RH  084%=      5-min Rain = 0
KNH1 232044Z 04011KT 16/13 A3004 RMK A01 T01590130  RH  083%=      5-min Rain = 0
KNH1 232045Z 04011KT 16/13 A3004 RMK A01 T01590131  RH  084%=      5-min Rain = 0
KNH1 232046Z 05011KT 16/13 A3004 RMK A01 T01600131  RH  083%=      5-min Rain = 0
KNH1 232047Z 05010KT 16/13 A3004 RMK A01 T01600132  RH  084%=      5-min Rain = 0
KNH1 232048Z 04010KT 16/13 A3004 RMK A01 T01610134  RH  084%=      5-min Rain = 0
KNH1 232049Z 04011KT 16/13 A3004 RMK A01 T01620132  RH  083%=      5-min Rain = 0
KNH1 232050Z 04010KT 16/13 A3004 RMK A01 T01610131  RH  082%=      5-min Rain = 0
KNH1 232051Z 04010KT 16/13 A3004 RMK A01 T01600130  RH  082%=      5-min Rain = 0
KNH1 232052Z 03009KT 16/13 A3004 RMK A01 T01600130  RH  082%=      5-min Rain = 0
KNH1 232053Z 05009KT 16/13 A3004 RMK A01 T01610132  RH  083%=      5-min Rain = 0
KNH1 232054Z 04011KT 16/13 A3004 RMK A01 T01600131  RH  083%=      5-min Rain = 0
KNH1 232055Z 04011KT 16/13 A3004 RMK A01 T01600131  RH  083%=      5-min Rain = 0
KNH1 232056Z 05010KT 16/13 A3004 RMK A01 T01600131  RH  083%=      5-min Rain = 0
KNH1 232057Z 05012KT 16/13 A3004 RMK A01 T01600132  RH  083%=      5-min Rain = 0
KNH1 232058Z 05014KT 16/13 A3004 RMK A01 T01590130  RH  083%=      5-min Rain = 0
KNH1 232059Z 05011KT 16/13 A3004 RMK A01 T01580128  RH  082%=      5-min Rain = 0
KNH1 232100Z 04009KT 16/13 A3004 RMK A01 T01580130  RH  084%=      5-min Rain = 0
KNH1 232101Z 05009KT 16/13 A3004 RMK A01 T01590131  RH  084%=      5-min Rain = 0
KNH1 232102Z 05011KT 16/13 A3004 RMK A01 T01590130  RH  083%=      5-min Rain = 0
KNH1 232103Z 05008KT 16/13 A3004 RMK A01 T01600132  RH  084%=      5-min Rain = 0
KNH1 232104Z 04009KT 16/13 A3004 RMK A01 T01610133  RH  084%=      5-min Rain = 0
KNH1 232105Z 04011KT 16/13 A3004 RMK A01 T01620132  RH  083%=      5-min Rain = 0
KNH1 232106Z 05012KT 16/13 A3004 RMK A01 T01610130  RH  082%=      5-min Rain = 0
KNH1 232107Z 04009KT 16/13 A3004 RMK A01 T01590130  RH  083%=      5-min Rain = 0
KNH1 232108Z 04012KT 16/13 A3004 RMK A01 T01580130  RH  083%=      5-min Rain = 0
KNH1 232109Z 05010KT 16/13 A3004 RMK A01 T01580131  RH  084%=      5-min Rain = 0
KNH1 232110Z 05012KT 16/13 A3004 RMK A01 T01570130  RH  084%=      5-min Rain = 0
KNH1 232111Z 05010KT 16/13 A3004 RMK A01 T01550129  RH  084%=      5-min Rain = 0
KNH1 232112Z 05013KT 15/13 A3004 RMK A01 T01540129  RH  085%=      5-min Rain = 0
KNH1 232113Z 06009KT 15/13 A3004 RMK A01 T01540129  RH  085%=      5-min Rain = 0
KNH1 232114Z 05012KT 15/13 A3004 RMK A01 T01540129  RH  085%=      5-min Rain = 0
KNH1 232115Z 04008KT 15/13 A3003 RMK A01 T01530128  RH  085%=      5-min Rain = 0
KNH1 232116Z 03011KT 15/13 A3004 RMK A01 T01530130  RH  086%=      5-min Rain = 0
KNH1 232117Z 03012KT 15/13 A3003 RMK A01 T01530128  RH  085%=      5-min Rain = 0
KNH1 232118Z 03011KT 15/13 A3004 RMK A01 T01530128  RH  085%=      5-min Rain = 0
KNH1 232119Z 03012KT 15/13 A3004 RMK A01 T01520126  RH  085%=      5-min Rain = 0
KNH1 232120Z 04012KT 15/13 A3004 RMK A01 T01510126  RH  085%=      5-min Rain = 0
KNH1 232121Z 04011KT 15/13 A3004 RMK A01 T01510128  RH  086%=      5-min Rain = 0
KNH1 232122Z 05011KT 15/13 A3003 RMK A01 T01510127  RH  086%=      5-min Rain = 0
KNH1 232123Z 05010KT 15/13 A3004 RMK A01 T01510127  RH  086%=      5-min Rain = 0
KNH1 232124Z 05011KT 15/13 A3003 RMK A01 T01510126  RH  085%=      5-min Rain = 0
KNH1 232125Z 03012KT 15/13 A3003 RMK A01 T01510127  RH  086%=      5-min Rain = 0
KNH1 232126Z 05010KT 15/13 A3003 RMK A01 T01520127  RH  085%=      5-min Rain = 0
KNH1 232127Z 05010KT 15/13 A3003 RMK A01 T01520127  RH  085%=      5-min Rain = 0
KNH1 232128Z 05011KT 15/13 A3003 RMK A01 T01520127  RH  085%=      5-min Rain = 0
KNH1 232129Z 04012KT 15/13 A3003 RMK A01 T01520128  RH  085%=      5-min Rain = 0
KNH1 232130Z 03012KT 15/13 A3003 RMK A01 T01520127  RH  085%=      5-min Rain = 0
KNH1 232131Z 03012KT 15/13 A3003 RMK A01 T01520126  RH  085%=      5-min Rain = 0
KNH1 232132Z 04013KT 15/13 A3003 RMK A01 T01520126  RH  085%=      5-min Rain = 0
KNH1 232133Z 04010KT 15/13 A3003 RMK A01 T01510125  RH  084%=      5-min Rain = 0
KNH1 232134Z 04010KT 15/13 A3003 RMK A01 T01510126  RH  085%=      5-min Rain = 0
KNH1 232135Z 04012KT 15/12 A3003 RMK A01 T01520124  RH  084%=      5-min Rain = 0
KNH1 232136Z 04010KT 15/13 A3003 RMK A01 T01520125  RH  084%=      5-min Rain = 0
KNH1 232137Z 05012KT 15/13 A3003 RMK A01 T01520126  RH  084%=      5-min Rain = 0
KNH1 232138Z 04011KT 15/13 A3003 RMK A01 T01520125  RH  084%=      5-min Rain = 0
KNH1 232139Z 04011KT 15/12 A3003 RMK A01 T01520124  RH  083%=      5-min Rain = 0
KNH1 232140Z 05010KT 15/13 A3003 RMK A01 T01520125  RH  084%=      5-min Rain = 0
KNH1 232141Z 04009G16KT 15/13 A3003 RMK A01 T01520127  RH  085%=      5-min Rain = 0
KNH1 232142Z 03012KT 15/13 A3003 RMK A01 T01520126  RH  084%=      5-min Rain = 0
KNH1 232143Z 03011KT 15/13 A3003 RMK A01 T01510125  RH  084%=      5-min Rain = 0
KNH1 232144Z 04010KT 15/13 A3003 RMK A01 T01510126  RH  085%=      5-min Rain = 0
KNH1 232145Z 04009KT 15/13 A3003 RMK A01 T01510125  RH  084%=      5-min Rain = 0
KNH1 232146Z 05012KT 15/13 A3003 RMK A01 T01510125  RH  085%=      5-min Rain = 0
KNH1 232147Z 04010KT 15/13 A3003 RMK A01 T01500125  RH  085%=      5-min Rain = 0
KNH1 232148Z 03010KT 15/13 A3003 RMK A01 T01500126  RH  086%=      5-min Rain = 0
KNH1 232149Z 03012KT 15/13 A3003 RMK A01 T01500126  RH  086%=      5-min Rain = 0
KNH1 232150Z 03011KT 15/13 A3003 RMK A01 T01490125  RH  086%=      5-min Rain = 0
KNH1 232151Z 03008KT 15/13 A3003 RMK A01 T01480125  RH  086%=      5-min Rain = 0
KNH1 232152Z 03011KT 15/13 A3003 RMK A01 T01480125  RH  086%=      5-min Rain = 0
KNH1 232153Z 03009KT 15/13 A3003 RMK A01 T01480125  RH  086%=      5-min Rain = 0
KNH1 232154Z 04009KT 15/13 A3003 RMK A01 T01480126  RH  086%=      5-min Rain = 0
KNH1 232155Z 04011KT 15/12 A3003 RMK A01 T01480124  RH  085%=      5-min Rain = 0
KNH1 232156Z 04011G16KT 15/12 A3003 RMK A01 T01480124  RH  086%=      5-min Rain = 0
KNH1 232157Z 04011KT 15/12 A3003 RMK A01 T01470123  RH  086%=      5-min Rain = 0
KNH1 232158Z 04010KT 15/12 A3003 RMK A01 T01470123  RH  086%=      5-min Rain = 0
KNH1 232159Z 04012KT 15/12 A3003 RMK A01 T01460123  RH  086%=      5-min Rain = 0
KNH1 232200Z 04009KT 15/12 A3003 RMK A01 T01460122  RH  086%=      5-min Rain = 0
KNH1 232201Z 04008KT 15/12 A3003 RMK A01 T01460124  RH  087%=      5-min Rain = 0
KNH1 232202Z 04009KT 15/12 A3003 RMK A01 T01460124  RH  086%=      5-min Rain = 0
KNH1 232203Z 03008KT 15/12 A3003 RMK A01 T01460124  RH  086%=      5-min Rain = 0
KNH1 232204Z 03010KT 15/12 A3003 RMK A01 T01470124  RH  086%=      5-min Rain = 0
KNH1 232205Z 04008KT 15/12 A3003 RMK A01 T01470124  RH  086%=      5-min Rain = 0
KNH1 232206Z 03009KT 15/12 A3003 RMK A01 T01470124  RH  086%=      5-min Rain = 0
KNH1 232207Z 04009KT 15/12 A3003 RMK A01 T01470124  RH  086%=      5-min Rain = 0
KNH1 232208Z 04009KT 15/13 A3003 RMK A01 T01470125  RH  087%=      5-min Rain = 0
KNH1 232209Z 04013KT 15/12 A3003 RMK A01 T01470124  RH  086%=      5-min Rain = 0
KNH1 232210Z 04012KT 15/12 A3003 RMK A01 T01460122  RH  086%=      5-min Rain = 0
KNH1 232211Z 04010KT 15/12 A3003 RMK A01 T01450122  RH  086%=      5-min Rain = 0
KNH1 232212Z 04010KT 15/12 A3003 RMK A01 T01450122  RH  086%=      5-min Rain = 0
KNH1 232213Z 04010KT 15/12 A3002 RMK A01 T01460122  RH  086%=      5-min Rain = 0
KNH1 232214Z 04010KT 15/12 A3002 RMK A01 T01460121  RH  085%=      5-min Rain = 0
KNH1 232215Z 03010KT 15/12 A3003 RMK A01 T01460121  RH  085%=      5-min Rain = 0
KNH1 232216Z 03009KT 15/12 A3003 RMK A01 T01460123  RH  086%=      5-min Rain = 0
KNH1 232217Z 03011KT 15/12 A3003 RMK A01 T01470124  RH  086%=      5-min Rain = 0
KNH1 232218Z 04012KT 15/12 A3002 RMK A01 T01470122  RH  085%=      5-min Rain = 0
KNH1 232219Z 04009KT 15/12 A3003 RMK A01 T01460122  RH  085%=      5-min Rain = 0
KNH1 232220Z 04009KT 15/12 A3003 RMK A01 T01460123  RH  086%=      5-min Rain = 0
KNH1 232221Z 04010KT 15/12 A3002 RMK A01 T01470123  RH  086%=      5-min Rain = 0
KNH1 232222Z 04010KT 15/12 A3002 RMK A01 T01470122  RH  085%=      5-min Rain = 0
KNH1 232223Z 03008KT 15/12 A3002 RMK A01 T01470122  RH  085%=      5-min Rain = 0
KNH1 232224Z 04009KT 15/12 A3002 RMK A01 T01470124  RH  086%=      5-min Rain = 0
KNH1 232225Z 04008KT 15/12 A3002 RMK A01 T01480124  RH  085%=      5-min Rain = 0
KNH1 232226Z 03012KT 15/12 A3002 RMK A01 T01480124  RH  085%=      5-min Rain = 0
KNH1 232227Z 04011KT 15/12 A3002 RMK A01 T01480122  RH  084%=      5-min Rain = 0
KNH1 232228Z 04011KT 15/12 A3002 RMK A01 T01480121  RH  084%=      5-min Rain = 0
KNH1 232229Z 03011KT 15/12 A3002 RMK A01 T01470120  RH  084%=      5-min Rain = 0
KNH1 232230Z 04011KT 15/12 A3002 RMK A01 T01470121  RH  084%=      5-min Rain = 0
KNH1 232231Z 03014KT 15/12 A3002 RMK A01 T01470122  RH  085%=      5-min Rain = 0
KNH1 232232Z 04012KT 15/12 A3002 RMK A01 T01460121  RH  085%=      5-min Rain = 0
KNH1 232233Z 03014KT 15/12 A3002 RMK A01 T01450121  RH  085%=      5-min Rain = 0
KNH1 232234Z 04012KT 14/12 A3002 RMK A01 T01440121  RH  086%=      5-min Rain = 0
KNH1 232235Z 03013KT 14/12 A3002 RMK A01 T01430120  RH  086%=      5-min Rain = 0
KNH1 232236Z 03011KT 14/12 A3002 RMK A01 T01410120  RH  087%=      5-min Rain = 0
KNH1 232237Z 03012KT 14/12 A3002 RMK A01 T01410121  RH  088%=      5-min Rain = 0
KNH1 232238Z 03012KT 14/12 A3002 RMK A01 T01400120  RH  087%=      5-min Rain = 0
KNH1 232239Z 03012KT 14/12 A3002 RMK A01 T01400119  RH  087%=      5-min Rain = 0
KNH1 232240Z 03012KT 14/12 A3002 RMK A01 T01390119  RH  088%=      5-min Rain = 0
KNH1 232241Z 03014KT 14/12 A3002 RMK A01 T01380118  RH  087%=      5-min Rain = 0
KNH1 232242Z 02012KT 14/12 A3002 RMK A01 T01370117  RH  087%=      5-min Rain = 0
KNH1 232243Z 02012KT 14/12 A3002 RMK A01 T01360117  RH  088%=      5-min Rain = 0
KNH1 232244Z 03011KT 14/12 A3002 RMK A01 T01360118  RH  089%=      5-min Rain = 0
KNH1 232245Z 01012G18KT 14/12 A3002 RMK A01 T01370118  RH  089%=      5-min Rain = 0
KNH1 232246Z 03013KT 14/12 A3002 RMK A01 T01360117  RH  088%=      5-min Rain = 0
KNH1 232247Z 04012KT 14/12 A3002 RMK A01 T01360117  RH  089%=      5-min Rain = 0
KNH1 232248Z 03011KT 14/12 A3002 RMK A01 T01350117  RH  089%=      5-min Rain = 0
KNH1 232249Z 03011KT 14/12 A3002 RMK A01 T01350116  RH  088%=      5-min Rain = 0
KNH1 232250Z 03010KT 13/12 A3002 RMK A01 T01340116  RH  088%=      5-min Rain = 0
KNH1 232251Z 03009KT 13/12 A3002 RMK A01 T01340116  RH  089%=      5-min Rain = 0
KNH1 232252Z 03012KT 14/12 A3002 RMK A01 T01350116  RH  089%=      5-min Rain = 0
KNH1 232253Z 02013KT 14/12 A3002 RMK A01 T01350115  RH  088%=      5-min Rain = 0
KNH1 232254Z 03013KT 14/12 A3002 RMK A01 T01350115  RH  088%=      5-min Rain = 0
KNH1 232255Z 01013KT 14/12 A3002 RMK A01 T01350115  RH  088%=      5-min Rain = 0
KNH1 232256Z 02011KT 13/12 A3002 RMK A01 T01340115  RH  088%=      5-min Rain = 0
KNH1 232257Z 02011KT 13/12 A3002 RMK A01 T01340116  RH  089%=      5-min Rain = 0
KNH1 232258Z 02013KT 13/12 A3002 RMK A01 T01340115  RH  089%=      5-min Rain = 0
KNH1 232259Z 02015KT 13/11 A3002 RMK A01 T01330114  RH  088%=      5-min Rain = 0
KNH1 232300Z 03015KT 13/11 A3002 RMK A01 T01330114  RH  088%=      5-min Rain = 0
KNH1 232301Z 03011KT 13/11 A3002 RMK A01 T01320114  RH  089%=      5-min Rain = 0
KNH1 232302Z 03013G19KT 13/11 A3002 RMK A01 T01320114  RH  089%=      5-min Rain = 0
KNH1 232303Z 04012KT 13/11 A3002 RMK A01 T01330114  RH  088%=      5-min Rain = 0
KNH1 232304Z 04012KT 13/11 A3002 RMK A01 T01320114  RH  088%=      5-min Rain = 0
KNH1 232305Z 03012KT 13/11 A3002 RMK A01 T01330114  RH  088%=      5-min Rain = 0
KNH1 232306Z 04010KT 13/11 A3002 RMK A01 T01330114  RH  088%=      5-min Rain = 0
KNH1 232307Z 03012KT 13/11 A3002 RMK A01 T01330114  RH  088%=      5-min Rain = 0
KNH1 232308Z 03011KT 13/11 A3002 RMK A01 T01330114  RH  088%=      5-min Rain = 0
KNH1 232309Z 03011KT 13/11 A3002 RMK A01 T01330114  RH  088%=      5-min Rain = 0
KNH1 232310Z 03013KT 13/11 A3002 RMK A01 T01330113  RH  088%=      5-min Rain = 0
KNH1 232311Z 03009KT 13/11 A3002 RMK A01 T01340114  RH  088%=      5-min Rain = 0
KNH1 232312Z 03011KT 13/11 A3002 RMK A01 T01340114  RH  088%=      5-min Rain = 0
KNH1 232313Z 03011G16KT 13/11 A3002 RMK A01 T01340114  RH  088%=      5-min Rain = 0
KNH1 232314Z 02014KT 13/11 A3002 RMK A01 T01340114  RH  087%=      5-min Rain = 0
KNH1 232315Z 03014KT 13/11 A3002 RMK A01 T01340113  RH  087%=      5-min Rain = 0
KNH1 232316Z 02011KT 13/11 A3002 RMK A01 T01340113  RH  087%=      5-min Rain = 0
KNH1 232317Z 03010G15KT 13/11 A3002 RMK A01 T01340114  RH  088%=      5-min Rain = 0
KNH1 232318Z 03011KT 13/11 A3002 RMK A01 T01340114  RH  088%=      5-min Rain = 0
KNH1 232319Z 03011KT 13/11 A3002 RMK A01 T01340114  RH  087%=      5-min Rain = 0
KNH1 232320Z 03008KT 14/11 A3002 RMK A01 T01350114  RH  087%=      5-min Rain = 0
KNH1 232321Z 04009KT 13/11 A3002 RMK A01 T01340114  RH  087%=      5-min Rain = 0
KNH1 232322Z 04010KT 13/11 A3002 RMK A01 T01340113  RH  087%=      5-min Rain = 0
KNH1 232323Z 03008KT 14/11 A3003 RMK A01 T01350113  RH  087%=      5-min Rain = 0
KNH1 232324Z 03011KT 14/11 A3003 RMK A01 T01350113  RH  087%=      5-min Rain = 0
KNH1 232325Z 03011KT 14/11 A3003 RMK A01 T01360112  RH  086%=      5-min Rain = 0
KNH1 232326Z 03011KT 14/11 A3003 RMK A01 T01360113  RH  086%=      5-min Rain = 0
KNH1 232327Z 03012KT 14/11 A3003 RMK A01 T01360112  RH  085%=      5-min Rain = 0
KNH1 232328Z 03012KT 14/11 A3003 RMK A01 T01360112  RH  085%=      5-min Rain = 0
KNH1 232329Z 03011KT 14/11 A3003 RMK A01 T01360112  RH  085%=      5-min Rain = 0
KNH1 232330Z 04011KT 14/11 A3003 RMK A01 T01360112  RH  085%=      5-min Rain = 0
KNH1 232331Z 03011KT 14/11 A3003 RMK A01 T01360113  RH  086%=      5-min Rain = 0
KNH1 232332Z 03009KT 14/11 A3003 RMK A01 T01370112  RH  085%=      5-min Rain = 0
KNH1 232333Z 03008KT 14/11 A3003 RMK A01 T01370114  RH  086%=      5-min Rain = 0
KNH1 232334Z 03011KT 14/11 A3003 RMK A01 T01370113  RH  085%=      5-min Rain = 0
KNH1 232335Z 04008KT 14/11 A3003 RMK A01 T01370113  RH  085%=      5-min Rain = 0
KNH1 232336Z 04009KT 14/12 A3003 RMK A01 T01370115  RH  086%=      5-min Rain = 0
KNH1 232337Z 03009KT 14/11 A3003 RMK A01 T01380114  RH  086%=      5-min Rain = 0
KNH1 232338Z 04009KT 14/11 A3003 RMK A01 T01380113  RH  085%=      5-min Rain = 0
KNH1 232339Z 03007KT 14/11 A3003 RMK A01 T01370114  RH  086%=      5-min Rain = 0
KNH1 232340Z 04010KT 14/12 A3003 RMK A01 T01380115  RH  086%=      5-min Rain = 0
KNH1 232341Z 03009KT 14/11 A3003 RMK A01 T01380114  RH  086%=      5-min Rain = 0
KNH1 232342Z 03009KT 14/11 A3003 RMK A01 T01380114  RH  085%=      5-min Rain = 0
KNH1 232343Z 04007KT 14/11 A3003 RMK A01 T01380114  RH  085%=      5-min Rain = 0
KNH1 232344Z 04010KT 14/12 A3003 RMK A01 T01380115  RH  086%=      5-min Rain = 0
KNH1 232345Z 04012KT 14/11 A3003 RMK A01 T01380113  RH  085%=      5-min Rain = 0
KNH1 232346Z 03012KT 14/11 A3003 RMK A01 T01380113  RH  085%=      5-min Rain = 0
KNH1 232347Z 04011KT 14/11 A3003 RMK A01 T01380112  RH  085%=      5-min Rain = 0
KNH1 232348Z 04010KT 14/11 A3003 RMK A01 T01380112  RH  084%=      5-min Rain = 0
KNH1 232349Z 04010G15KT 14/11 A3003 RMK A01 T01380112  RH  084%=      5-min Rain = 0
KNH1 232350Z 04012KT 14/11 A3003 RMK A01 T01380112  RH  084%=      5-min Rain = 0
KNH1 232351Z 04011KT 14/11 A3003 RMK A01 T01380112  RH  084%=      5-min Rain = 0
KNH1 232352Z 04010KT 14/11 A3003 RMK A01 T01380112  RH  084%=      5-min Rain = 0
KNH1 232353Z 03009KT 14/11 A3003 RMK A01 T01380113  RH  085%=      5-min Rain = 0
KNH1 232354Z 04011KT 14/11 A3003 RMK A01 T01380114  RH  085%=      5-min Rain = 0
KNH1 232355Z 04009KT 14/11 A3003 RMK A01 T01380114  RH  085%=      5-min Rain = 0
KNH1 232356Z 03012KT 14/11 A3003 RMK A01 T01380114  RH  086%=      5-min Rain = 0
KNH1 232357Z 04011G16KT 14/11 A3003 RMK A01 T01380113  RH  085%=      5-min Rain = 0
KNH1 232358Z 04011KT 14/11 A3003 RMK A01 T01380113  RH  085%=      5-min Rain = 0
KNH1 232359Z 03009KT 14/11 A3003 RMK A01 T01380113  RH  085%=      5-min Rain = 0
KNH1 240000Z 03010KT 14/11 A3003 RMK A01 T01370113  RH  085%=      5-min Rain = 0
KNH1 240001Z 03011KT 14/11 A3003 RMK A01 T01370112  RH  085%=      5-min Rain = 0
KNH1 240002Z 03011KT 14/11 A3003 RMK A01 T01370111  RH  085%=      5-min Rain = 0
KNH1 240003Z 03011KT 14/11 A3003 RMK A01 T01370112  RH  085%=      5-min Rain = 0
KNH1 240004Z 04011KT 14/11 A3003 RMK A01 T01370112  RH  085%=      5-min Rain = 0
KNH1 240005Z 03012KT 14/11 A3003 RMK A01 T01370112  RH  085%=      5-min Rain = 0
KNH1 240006Z 03008KT 14/11 A3003 RMK A01 T01370113  RH  085%=      5-min Rain = 0
KNH1 240007Z 03009KT 14/11 A3003 RMK A01 T01370113  RH  085%=      5-min Rain = 0
KNH1 240008Z 03010KT 14/11 A3003 RMK A01 T01370113  RH  085%=      5-min Rain = 0
KNH1 240009Z 03011KT 14/11 A3003 RMK A01 T01370112  RH  085%=      5-min Rain = 0
KNH1 240010Z 03010KT 14/11 A3003 RMK A01 T01370113  RH  085%=      5-min Rain = 0
KNH1 240011Z 03011KT 14/11 A3003 RMK A01 T01370113  RH  085%=      5-min Rain = 0
KNH1 240012Z 03010KT 14/11 A3003 RMK A01 T01370113  RH  085%=      5-min Rain = 0
KNH1 240013Z 03010KT 14/11 A3003 RMK A01 T01370113  RH  085%=      5-min Rain = 0
KNH1 240014Z 03009KT 14/11 A3003 RMK A01 T01370114  RH  086%=      5-min Rain = 0
KNH1 240015Z 03009KT 14/12 A3003 RMK A01 T01380115  RH  086%=      5-min Rain = 0
KNH1 240016Z 02013KT 14/11 A3003 RMK A01 T01370114  RH  086%=      5-min Rain = 0
KNH1 240017Z 03014KT 14/11 A3003 RMK A01 T01380112  RH  085%=      5-min Rain = 0
KNH1 240018Z 03013KT 14/11 A3003 RMK A01 T01380111  RH  084%=      5-min Rain = 0
KNH1 240019Z 03012KT 14/11 A3003 RMK A01 T01370112  RH  084%=      5-min Rain = 0
KNH1 240020Z 03014KT 14/11 A3003 RMK A01 T01380112  RH  085%=      5-min Rain = 0
KNH1 240021Z 03012G17KT 14/11 A3003 RMK A01 T01370112  RH  085%=      5-min Rain = 0
KNH1 240022Z 03010KT 14/11 A3003 RMK A01 T01370113  RH  085%=      5-min Rain = 0
KNH1 240023Z 03010KT 14/11 A3003 RMK A01 T01370113  RH  085%=      5-min Rain = 0
KNH1 240024Z 03011KT 14/11 A3003 RMK A01 T01370113  RH  085%=      5-min Rain = 0
KNH1 240025Z 03013KT 14/11 A3003 RMK A01 T01370112  RH  085%=      5-min Rain = 0
KNH1 240026Z 03012KT 14/11 A3003 RMK A01 T01370112  RH  085%=      5-min Rain = 0
KNH1 240027Z 02012KT 14/11 A3003 RMK A01 T01370112  RH  085%=      5-min Rain = 0
KNH1 240028Z 02011KT 14/11 A3003 RMK A01 T01370113  RH  086%=      5-min Rain = 0
KNH1 240029Z 02011KT 14/11 A3003 RMK A01 T01370113  RH  086%=      5-min Rain = 0
KNH1 240030Z 02011G16KT 14/11 A3003 RMK A01 T01370113  RH  086%=      5-min Rain = 0
KNH1 240031Z 03011KT 14/11 A3003 RMK A01 T01360112  RH  085%=      5-min Rain = 0
KNH1 240032Z 03010G15KT 14/11 A3003 RMK A01 T01370112  RH  085%=      5-min Rain = 0
KNH1 240033Z 02009KT 14/11 A3003 RMK A01 T01370113  RH  086%=      5-min Rain = 0
KNH1 240034Z 02012KT 14/11 A3002 RMK A01 T01360112  RH  085%=      5-min Rain = 0
KNH1 240035Z 03014KT 14/11 A3002 RMK A01 T01360111  RH  085%=      5-min Rain = 0
KNH1 240036Z 03013KT 14/11 A3002 RMK A01 T01360110  RH  084%=      5-min Rain = 0
KNH1 240037Z 02011KT 14/11 A3002 RMK A01 T01360110  RH  085%=      5-min Rain = 0
KNH1 240038Z 02011KT 14/11 A3002 RMK A01 T01360111  RH  085%=      5-min Rain = 0
KNH1 240039Z 03010KT 14/11 A3002 RMK A01 T01360111  RH  085%=      5-min Rain = 0
KNH1 240040Z 03010KT 14/11 A3002 RMK A01 T01350111  RH  085%=      5-min Rain = 0
KNH1 240041Z 03009KT 14/11 A3002 RMK A01 T01360112  RH  086%=      5-min Rain = 0
KNH1 240042Z 02010KT 14/11 A3002 RMK A01 T01360112  RH  086%=      5-min Rain = 0
KNH1 240043Z 02011KT 14/11 A3003 RMK A01 T01360111  RH  085%=      5-min Rain = 0
KNH1 240044Z 03010KT 14/11 A3003 RMK A01 T01360111  RH  085%=      5-min Rain = 0
KNH1 240045Z 03009KT 14/11 A3003 RMK A01 T01360111  RH  085%=      5-min Rain = 0
KNH1 240046Z 03011KT 14/11 A3003 RMK A01 T01360111  RH  085%=      5-min Rain = 0
KNH1 240047Z 03009KT 14/11 A3003 RMK A01 T01360110  RH  084%=      5-min Rain = 0
KNH1 240048Z 03009KT 14/11 A3003 RMK A01 T01360110  RH  084%=      5-min Rain = 0
KNH1 240049Z 02008KT 14/11 A3003 RMK A01 T01360111  RH  085%=      5-min Rain = 0
KNH1 240050Z 02008G13KT 14/11 A3003 RMK A01 T01360112  RH  085%=      5-min Rain = 0
KNH1 240051Z 02009KT 14/11 A3003 RMK A01 T01360111  RH  085%=      5-min Rain = 0
KNH1 240052Z 01007KT 14/11 A3003 RMK A01 T01360110  RH  085%=      5-min Rain = 0
KNH1 240053Z 01009KT 14/11 A3003 RMK A01 T01360110  RH  085%=      5-min Rain = 0
KNH1 240054Z 01009KT 14/11 A3003 RMK A01 T01360110  RH  084%=      5-min Rain = 0
KNH1 240055Z 02010KT 14/11 A3002 RMK A01 T01360109  RH  084%=      5-min Rain = 0
KNH1 240056Z 01010KT 14/11 A3002 RMK A01 T01360109  RH  084%=      5-min Rain = 0
KNH1 240057Z 02009KT 14/11 A3002 RMK A01 T01360109  RH  084%=      5-min Rain = 0
KNH1 240058Z 02009KT 14/11 A3002 RMK A01 T01360109  RH  084%=      5-min Rain = 0
KNH1 240059Z 02009KT 14/11 A3002 RMK A01 T01360109  RH  084%=      5-min Rain = 0
KNH1 240100Z 02009KT 14/11 A3002 RMK A01 T01360110  RH  084%=      5-min Rain = 0
KNH1 240101Z 02010KT 14/11 A3002 RMK A01 T01360110  RH  084%=      5-min Rain = 0
KNH1 240102Z 02010KT 14/11 A3002 RMK A01 T01350110  RH  084%=      5-min Rain = 0
KNH1 240103Z 03008KT 14/11 A3002 RMK A01 T01350110  RH  085%=      5-min Rain = 0
KNH1 240104Z 03009KT 14/11 A3002 RMK A01 T01350110  RH  085%=      5-min Rain = 0
KNH1 240105Z 02008KT 14/11 A3002 RMK A01 T01350110  RH  085%=      5-min Rain = 0
KNH1 240106Z 03008KT 14/11 A3003 RMK A01 T01350109  RH  084%=      5-min Rain = 0
KNH1 240107Z 03009KT 14/11 A3003 RMK A01 T01360109  RH  084%=      5-min Rain = 0
KNH1 240108Z 04007KT 14/11 A3003 RMK A01 T01360110  RH  084%=      5-min Rain = 0
KNH1 240109Z 03008KT 14/11 A3003 RMK A01 T01360110  RH  084%=      5-min Rain = 0
KNH1 240110Z 04009KT 14/11 A3003 RMK A01 T01360109  RH  084%=      5-min Rain = 0
KNH1 240111Z 04007KT 14/11 A3004 RMK A01 T01360109  RH  084%=      5-min Rain = 0
KNH1 240112Z 04007KT 14/11 A3004 RMK A01 T01360111  RH  084%=      5-min Rain = 0
KNH1 240113Z 04008KT 14/11 A3003 RMK A01 T01360110  RH  084%=      5-min Rain = 0
KNH1 240114Z 03008KT 14/11 A3003 RMK A01 T01360109  RH  084%=      5-min Rain = 0
KNH1 240115Z 03010KT 14/11 A3003 RMK A01 T01360109  RH  083%=      5-min Rain = 0
KNH1 240116Z 03009KT 14/11 A3003 RMK A01 T01360108  RH  083%=      5-min Rain = 0
KNH1 240117Z 03009KT 14/11 A3003 RMK A01 T01360108  RH  083%=      5-min Rain = 0
KNH1 240118Z 03009KT 14/11 A3003 RMK A01 T01360108  RH  083%=      5-min Rain = 0
KNH1 240119Z 03008KT 14/11 A3003 RMK A01 T01360109  RH  083%=      5-min Rain = 0
KNH1 240120Z 03009KT 14/11 A3003 RMK A01 T01360110  RH  084%=      5-min Rain = 0
KNH1 240121Z 03009KT 14/11 A3003 RMK A01 T01360110  RH  084%=      5-min Rain = 0
KNH1 240122Z 03010KT 14/11 A3003 RMK A01 T01360109  RH  084%=      5-min Rain = 0
KNH1 240123Z 03011KT 14/11 A3003 RMK A01 T01360108  RH  083%=      5-min Rain = 0
KNH1 240124Z 03010KT 14/11 A3003 RMK A01 T01360108  RH  083%=      5-min Rain = 0
KNH1 240125Z 03009KT 14/11 A3003 RMK A01 T01360108  RH  083%=      5-min Rain = 0
KNH1 240126Z 03007KT 14/11 A3003 RMK A01 T01360108  RH  083%=      5-min Rain = 0
KNH1 240127Z 04006KT 14/11 A3003 RMK A01 T01360110  RH  084%=      5-min Rain = 0
KNH1 240128Z 04006KT 14/11 A3003 RMK A01 T01360111  RH  085%=      5-min Rain = 0
KNH1 240129Z 05006KT 14/11 A3003 RMK A01 T01360110  RH  085%=      5-min Rain = 0
KNH1 240130Z 05007KT 14/11 A3003 RMK A01 T01360110  RH  084%=      5-min Rain = 0
KNH1 240131Z 05008KT 14/11 A3003 RMK A01 T01350109  RH  084%=      5-min Rain = 0
KNH1 240132Z 05008KT 14/11 A3003 RMK A01 T01350108  RH  084%=      5-min Rain = 0
KNH1 240133Z 05007KT 14/11 A3003 RMK A01 T01350109  RH  084%=      5-min Rain = 0
KNH1 240134Z 06009KT 14/11 A3003 RMK A01 T01350110  RH  084%=      5-min Rain = 0
KNH1 240135Z 05008KT 14/11 A3003 RMK A01 T01350109  RH  084%=      5-min Rain = 0
KNH1 240136Z 06007KT 14/11 A3003 RMK A01 T01350109  RH  084%=      5-min Rain = 0
KNH1 240137Z 05009KT 14/11 A3003 RMK A01 T01350109  RH  084%=      5-min Rain = 0
KNH1 240138Z 06009KT 13/11 A3003 RMK A01 T01340109  RH  084%=      5-min Rain = 0
KNH1 240139Z 05010KT 14/11 A3003 RMK A01 T01350109  RH  084%=      5-min Rain = 0
KNH1 240140Z 05008KT 13/11 A3003 RMK A01 T01340108  RH  084%=      5-min Rain = 0
KNH1 240141Z 05009KT 13/11 A3003 RMK A01 T01340108  RH  084%=      5-min Rain = 0
KNH1 240142Z 05009KT 13/11 A3003 RMK A01 T01340108  RH  084%=      5-min Rain = 0
KNH1 240143Z 05008KT 13/11 A3003 RMK A01 T01340108  RH  084%=      5-min Rain = 0
KNH1 240144Z 06008KT 13/11 A3003 RMK A01 T01340108  RH  084%=      5-min Rain = 0
KNH1 240145Z 05008KT 13/11 A3003 RMK A01 T01340108  RH  084%=      5-min Rain = 0
KNH1 240146Z 05007KT 13/11 A3003 RMK A01 T01340108  RH  084%=      5-min Rain = 0
KNH1 240147Z 05008KT 13/11 A3003 RMK A01 T01340108  RH  084%=      5-min Rain = 0
KNH1 240148Z 06008KT 13/11 A3003 RMK A01 T01340108  RH  084%=      5-min Rain = 0
KNH1 240149Z 06006KT 13/11 A3003 RMK A01 T01340108  RH  084%=      5-min Rain = 0
KNH1 240150Z 06007KT 13/11 A3003 RMK A01 T01340109  RH  085%=      5-min Rain = 0
KNH1 240151Z 06007KT 13/11 A3004 RMK A01 T01340109  RH  085%=      5-min Rain = 0
KNH1 240152Z 06008KT 13/11 A3004 RMK A01 T01340109  RH  085%=      5-min Rain = 0
KNH1 240153Z 06008KT 13/11 A3004 RMK A01 T01340108  RH  084%=      5-min Rain = 0
KNH1 240154Z 06006KT 13/11 A3004 RMK A01 T01340108  RH  084%=      5-min Rain = 0
KNH1 240155Z 06006KT 13/11 A3004 RMK A01 T01340108  RH  084%=      5-min Rain = 0
KNH1 240156Z 06007KT 13/11 A3004 RMK A01 T01340108  RH  085%=      5-min Rain = 0
KNH1 240157Z 05006KT 13/11 A3004 RMK A01 T01340109  RH  085%=      5-min Rain = 0
KNH1 240158Z 05008KT 13/11 A3004 RMK A01 T01330108  RH  085%=      5-min Rain = 0
KNH1 240159Z 05008KT 13/11 A3004 RMK A01 T01330107  RH  084%=      5-min Rain = 0
KNH1 240200Z 05010KT 13/11 A3004 RMK A01 T01340107  RH  084%=      5-min Rain = 0
KNH1 240201Z 05007KT 13/11 A3004 RMK A01 T01330107  RH  084%=      5-min Rain = 0
KNH1 240202Z 05007KT 13/11 A3004 RMK A01 T01330107  RH  084%=      5-min Rain = 0
KNH1 240203Z 06007KT 13/11 A3004 RMK A01 T01340108  RH  084%=      5-min Rain = 0
KNH1 240204Z 05006KT 13/11 A3005 RMK A01 T01330108  RH  085%=      5-min Rain = 0
KNH1 240205Z 05007KT 13/11 A3004 RMK A01 T01330108  RH  085%=      5-min Rain = 0
KNH1 240206Z 05007KT 13/11 A3004 RMK A01 T01340108  RH  085%=      5-min Rain = 0
KNH1 240207Z 05007KT 13/11 A3004 RMK A01 T01330108  RH  085%=      5-min Rain = 0
KNH1 240208Z 05007KT 13/11 A3004 RMK A01 T01340109  RH  085%=      5-min Rain = 0
KNH1 240209Z 05008KT 13/11 A3004 RMK A01 T01330109  RH  085%=      5-min Rain = 0
KNH1 240210Z 04007KT 13/11 A3004 RMK A01 T01330108  RH  085%=      5-min Rain = 0
KNH1 240211Z 04007KT 13/11 A3004 RMK A01 T01330108  RH  085%=      5-min Rain = 0
KNH1 240212Z 03007KT 13/11 A3004 RMK A01 T01330109  RH  085%=      5-min Rain = 0
KNH1 240213Z 03007KT 13/11 A3004 RMK A01 T01330109  RH  085%=      5-min Rain = 0
KNH1 240214Z 03007KT 13/11 A3004 RMK A01 T01330109  RH  085%=      5-min Rain = 0
KNH1 240215Z 03008KT 13/11 A3003 RMK A01 T01330108  RH  085%=      5-min Rain = 0
KNH1 240216Z 03007KT 13/11 A3003 RMK A01 T01330109  RH  085%=      5-min Rain = 0
KNH1 240217Z 03008KT 13/11 A3003 RMK A01 T01330109  RH  085%=      5-min Rain = 0
KNH1 240218Z 03007KT 13/11 A3003 RMK A01 T01330109  RH  085%=      5-min Rain = 0
KNH1 240219Z 03009KT 13/11 A3003 RMK A01 T01320108  RH  085%=      5-min Rain = 0
KNH1 240220Z 02007KT 13/11 A3003 RMK A01 T01320108  RH  085%=      5-min Rain = 0
KNH1 240221Z 02008KT 13/11 A3003 RMK A01 T01320108  RH  085%=      5-min Rain = 0
KNH1 240222Z 03008KT 13/11 A3003 RMK A01 T01320109  RH  086%=      5-min Rain = 0
KNH1 240223Z 02008KT 13/11 A3003 RMK A01 T01320109  RH  086%=      5-min Rain = 0
KNH1 240224Z 02008KT 13/11 A3003 RMK A01 T01310108  RH  086%=      5-min Rain = 0
KNH1 240225Z 02007KT 13/11 A3003 RMK A01 T01310109  RH  086%=      5-min Rain = 0
KNH1 240226Z 02006KT 13/11 A3003 RMK A01 T01310109  RH  086%=      5-min Rain = 0
KNH1 240227Z 02007KT 13/11 A3003 RMK A01 T01310109  RH  086%=      5-min Rain = 0
KNH1 240228Z 01006KT 13/11 A3003 RMK A01 T01310109  RH  087%=      5-min Rain = 0
KNH1 240229Z 02007KT 13/11 A3003 RMK A01 T01310109  RH  087%=      5-min Rain = 0
KNH1 240230Z 01007KT 13/11 A3003 RMK A01 T01310109  RH  087%=      5-min Rain = 0
KNH1 240231Z 02006KT 13/11 A3003 RMK A01 T01310109  RH  086%=      5-min Rain = 0
KNH1 240232Z 02007KT 13/11 A3003 RMK A01 T01310108  RH  086%=      5-min Rain = 0
KNH1 240233Z 02007KT 13/11 A3003 RMK A01 T01310108  RH  086%=      5-min Rain = 0
KNH1 240234Z 02006KT 13/11 A3003 RMK A01 T01310107  RH  086%=      5-min Rain = 0
KNH1 240235Z 02007KT 13/11 A3003 RMK A01 T01310107  RH  086%=      5-min Rain = 0
KNH1 240236Z 02008KT 13/11 A3003 RMK A01 T01310107  RH  086%=      5-min Rain = 0
KNH1 240237Z 02008KT 13/11 A3003 RMK A01 T01310108  RH  086%=      5-min Rain = 0
KNH1 240238Z 02008KT 13/11 A3002 RMK A01 T01300107  RH  085%=      5-min Rain = 0
KNH1 240239Z 03008KT 13/11 A3002 RMK A01 T01310107  RH  085%=      5-min Rain = 0
KNH1 240240Z 03009KT 13/11 A3002 RMK A01 T01310107  RH  085%=      5-min Rain = 0
KNH1 240241Z 03007KT 13/11 A3002 RMK A01 T01310106  RH  085%=      5-min Rain = 0
KNH1 240242Z 02008KT 13/11 A3003 RMK A01 T01310107  RH  085%=      5-min Rain = 0
KNH1 240243Z 03008KT 13/11 A3003 RMK A01 T01310107  RH  085%=      5-min Rain = 0
KNH1 240244Z 03008KT 13/11 A3003 RMK A01 T01310106  RH  085%=      5-min Rain = 0
KNH1 240245Z 03008KT 13/11 A3003 RMK A01 T01310106  RH  085%=      5-min Rain = 0
KNH1 240246Z 03008KT 13/11 A3003 RMK A01 T01310106  RH  085%=      5-min Rain = 0
KNH1 240247Z 03009KT 13/11 A3003 RMK A01 T01300105  RH  085%=      5-min Rain = 0
KNH1 240248Z 03006KT 13/11 A3003 RMK A01 T01310106  RH  085%=      5-min Rain = 0
KNH1 240249Z 03008KT 13/11 A3004 RMK A01 T01300105  RH  085%=      5-min Rain = 0
KNH1 240250Z 03006KT 13/11 A3004 RMK A01 T01300105  RH  085%=      5-min Rain = 0
KNH1 240251Z 02007KT 13/11 A3004 RMK A01 T01300105  RH  085%=      5-min Rain = 0
KNH1 240252Z 02007KT 13/11 A3004 RMK A01 T01300105  RH  085%=      5-min Rain = 0
KNH1 240253Z 02007KT 13/11 A3003 RMK A01 T01300105  RH  085%=      5-min Rain = 0
KNH1 240254Z 02006KT 13/10 A3003 RMK A01 T01300104  RH  085%=      5-min Rain = 0
KNH1 240255Z 02006KT 13/10 A3003 RMK A01 T01290104  RH  085%=      5-min Rain = 0
KNH1 240256Z 03007KT 13/10 A3003 RMK A01 T01290104  RH  085%=      5-min Rain = 0
KNH1 240257Z 03006KT 13/10 A3004 RMK A01 T01290104  RH  085%=      5-min Rain = 0
KNH1 240258Z 02006KT 13/10 A3004 RMK A01 T01290104  RH  085%=      5-min Rain = 0
KNH1 240259Z 02006KT 13/10 A3004 RMK A01 T01290103  RH  085%=      5-min Rain = 0
KNH1 240300Z 03006KT 13/10 A3004 RMK A01 T01290103  RH  085%=      5-min Rain = 0
KNH1 240301Z 02006KT 13/10 A3004 RMK A01 T01290103  RH  085%=      5-min Rain = 0
KNH1 240302Z 02006KT 13/10 A3005 RMK A01 T01290103  RH  085%=      5-min Rain = 0
KNH1 240303Z 02006KT 13/10 A3005 RMK A01 T01290104  RH  085%=      5-min Rain = 0
KNH1 240304Z 02007KT 13/10 A3005 RMK A01 T01290103  RH  085%=      5-min Rain = 0
KNH1 240305Z 02005KT 13/10 A3005 RMK A01 T01290104  RH  085%=      5-min Rain = 0
KNH1 240306Z 02005KT 13/10 A3005 RMK A01 T01290104  RH  085%=      5-min Rain = 0
KNH1 240307Z 02006KT 13/10 A3004 RMK A01 T01280104  RH  085%=      5-min Rain = 0
KNH1 240308Z 01007KT 13/10 A3004 RMK A01 T01280103  RH  085%=      5-min Rain = 0
KNH1 240309Z 01007KT 13/10 A3004 RMK A01 T01270103  RH  085%=      5-min Rain = 0
KNH1 240310Z 02006KT 13/10 A3004 RMK A01 T01270103  RH  085%=      5-min Rain = 0
KNH1 240311Z 01006KT 13/10 A3004 RMK A01 T01270103  RH  085%=      5-min Rain = 0
KNH1 240312Z 02006KT 13/10 A3004 RMK A01 T01270103  RH  085%=      5-min Rain = 0
KNH1 240313Z 02005KT 13/10 A3004 RMK A01 T01270103  RH  085%=      5-min Rain = 0
KNH1 240314Z 03007KT 13/10 A3004 RMK A01 T01270103  RH  085%=      5-min Rain = 0
KNH1 240315Z 04006KT 13/10 A3004 RMK A01 T01270102  RH  085%=      5-min Rain = 0
KNH1 240316Z 04005KT 13/10 A3004 RMK A01 T01270103  RH  085%=      5-min Rain = 0
KNH1 240317Z 05006KT 13/10 A3004 RMK A01 T01270103  RH  085%=      5-min Rain = 0
KNH1 240318Z 05006KT 13/10 A3004 RMK A01 T01270103  RH  085%=      5-min Rain = 0
KNH1 240319Z 05005KT 13/10 A3005 RMK A01 T01270103  RH  085%=      5-min Rain = 0
KNH1 240320Z 05007KT 13/10 A3005 RMK A01 T01260103  RH  085%=      5-min Rain = 0
KNH1 240321Z 06005KT 13/10 A3005 RMK A01 T01260102  RH  086%=      5-min Rain = 0
KNH1 240322Z 06005KT 13/10 A3005 RMK A01 T01260103  RH  086%=      5-min Rain = 0
KNH1 240323Z 07005KT 13/10 A3005 RMK A01 T01250103  RH  086%=      5-min Rain = 0
KNH1 240324Z 06005KT 12/10 A3005 RMK A01 T01240103  RH  087%=      5-min Rain = 0
KNH1 240325Z 07006KT 12/10 A3006 RMK A01 T01240103  RH  087%=      5-min Rain = 0
KNH1 240326Z 07005KT 12/10 A3006 RMK A01 T01240103  RH  087%=      5-min Rain = 0
KNH1 240327Z 07005KT 12/10 A3006 RMK A01 T01230104  RH  088%=      5-min Rain = 0
KNH1 240328Z 07006KT 12/10 A3006 RMK A01 T01230104  RH  088%=      5-min Rain = 0
KNH1 240329Z 08006KT 12/10 A3006 RMK A01 T01230104  RH  088%=      5-min Rain = 0
KNH1 240330Z 09006KT 12/10 A3006 RMK A01 T01230104  RH  088%=      5-min Rain = 0
KNH1 240331Z 09006KT 12/10 A3006 RMK A01 T01230104  RH  088%=      5-min Rain = 0
KNH1 240332Z 09005KT 12/11 A3006 RMK A01 T01230105  RH  089%=      5-min Rain = 0
KNH1 240333Z 09004KT 12/11 A3006 RMK A01 T01230106  RH  089%=      5-min Rain = 0
KNH1 240334Z 09005KT 12/11 A3006 RMK A01 T01230107  RH  090%=      5-min Rain = 0
KNH1 240335Z 08004KT 12/11 A3006 RMK A01 T01230107  RH  090%=      5-min Rain = 0
KNH1 240336Z 07004KT 12/11 A3006 RMK A01 T01230108  RH  091%=      5-min Rain = 0
KNH1 240337Z 07004KT 12/11 A3006 RMK A01 T01230108  RH  091%=      5-min Rain = 0
KNH1 240338Z 07004KT 12/11 A3006 RMK A01 T01230108  RH  091%=      5-min Rain = 0
KNH1 240339Z 06003KT 12/11 A3006 RMK A01 T01230108  RH  091%=      5-min Rain = 0
KNH1 240340Z 06003KT 12/11 A3007 RMK A01 T01230108  RH  090%=      5-min Rain = 0
KNH1 240341Z 06003KT 12/11 A3006 RMK A01 T01230108  RH  090%=      5-min Rain = 0
KNH1 240342Z 05003KT 12/11 A3006 RMK A01 T01230107  RH  090%=      5-min Rain = 0
KNH1 240343Z 04003KT 12/11 A3006 RMK A01 T01230107  RH  090%=      5-min Rain = 0
KNH1 240344Z 04003KT 12/11 A3006 RMK A01 T01230107  RH  090%=      5-min Rain = 0
KNH1 240345Z 03004KT 12/11 A3006 RMK A01 T01230107  RH  090%=      5-min Rain = 0
KNH1 240346Z 03004KT 12/11 A3006 RMK A01 T01230106  RH  090%=      5-min Rain = 0
KNH1 240347Z 03004KT 12/11 A3006 RMK A01 T01230106  RH  089%=      5-min Rain = 0
KNH1 240348Z 04004KT 12/11 A3006 RMK A01 T01240107  RH  089%=      5-min Rain = 0
KNH1 240349Z 04003KT 12/11 A3007 RMK A01 T01240107  RH  089%=      5-min Rain = 0
KNH1 240350Z 04004KT 12/11 A3007 RMK A01 T01230107  RH  089%=      5-min Rain = 0
KNH1 240351Z 03003KT 12/11 A3007 RMK A01 T01230106  RH  089%=      5-min Rain = 0
KNH1 240352Z 03003KT 12/11 A3007 RMK A01 T01230107  RH  090%=      5-min Rain = 0
KNH1 240353Z 03004KT 12/11 A3007 RMK A01 T01230107  RH  090%=      5-min Rain = 0
KNH1 240354Z 03003KT 12/11 A3007 RMK A01 T01230107  RH  090%=      5-min Rain = 0
KNH1 240355Z 04004KT 12/11 A3007 RMK A01 T01230107  RH  090%=      5-min Rain = 0
KNH1 240356Z 04003KT 12/11 A3007 RMK A01 T01230107  RH  090%=      5-min Rain = 0
KNH1 240357Z 05004KT 12/11 A3007 RMK A01 T01230107  RH  090%=      5-min Rain = 0
KNH1 240358Z 05004KT 12/11 A3007 RMK A01 T01230106  RH  090%=      5-min Rain = 0
KNH1 240359Z 05004KT 12/11 A3007 RMK A01 T01220106  RH  090%=      5-min Rain = 0
KNH1 240400Z 05004KT 12/11 A3007 RMK A01 T01220106  RH  090%=      5-min Rain = 0
KNH1 240401Z 06003KT 12/11 A3007 RMK A01 T01220106  RH  090%=      5-min Rain = 0
KNH1 240402Z 06003KT 12/11 A3007 RMK A01 T01220107  RH  090%=      5-min Rain = 0
KNH1 240403Z 07003KT 12/11 A3007 RMK A01 T01220107  RH  091%=      5-min Rain = 0
KNH1 240404Z 07004KT 12/11 A3008 RMK A01 T01210107  RH  091%=      5-min Rain = 0
KNH1 240405Z 09004KT 12/11 A3008 RMK A01 T01210107  RH  091%=      5-min Rain = 0
KNH1 240406Z 09004KT 12/11 A3007 RMK A01 T01210107  RH  091%=      5-min Rain = 0
KNH1 240407Z 09004KT 12/11 A3007 RMK A01 T01210107  RH  092%=      5-min Rain = 0
KNH1 240408Z 10003KT 12/11 A3007 RMK A01 T01200108  RH  092%=      5-min Rain = 0
KNH1 240409Z 09004KT 12/11 A3007 RMK A01 T01200108  RH  093%=      5-min Rain = 0
KNH1 240410Z 09003KT 12/11 A3007 RMK A01 T01190109  RH  093%=      5-min Rain = 0
KNH1 240411Z 07003KT 12/11 A3007 RMK A01 T01190109  RH  093%=      5-min Rain = 0
KNH1 240412Z 07003KT 12/11 A3007 RMK A01 T01190109  RH  093%=      5-min Rain = 0
KNH1 240413Z 06003KT 12/11 A3006 RMK A01 T01180109  RH  094%=      5-min Rain = 0
KNH1 240414Z 07003KT 12/11 A3006 RMK A01 T01180109  RH  094%=      5-min Rain = 0
KNH1 240415Z 07003KT 12/11 A3006 RMK A01 T01180109  RH  094%=      5-min Rain = 0
KNH1 240416Z 08004KT 12/11 A3006 RMK A01 T01180110  RH  094%=      5-min Rain = 0
KNH1 240417Z 09003KT 12/11 A3006 RMK A01 T01180110  RH  095%=      5-min Rain = 0
KNH1 240418Z 09003KT 12/11 A3006 RMK A01 T01190111  RH  095%=      5-min Rain = 0
KNH1 240419Z 10003KT 12/11 A3006 RMK A01 T01190111  RH  095%=      5-min Rain = 0
KNH1 240420Z 09002KT 12/11 A3006 RMK A01 T01190110  RH  095%=      5-min Rain = 0
KNH1 240421Z 08003KT 12/11 A3006 RMK A01 T01190111  RH  095%=      5-min Rain = 0
KNH1 240422Z 08003KT 12/11 A3006 RMK A01 T01190111  RH  095%=      5-min Rain = 0
KNH1 240423Z 06003KT 12/11 A3006 RMK A01 T01190111  RH  095%=      5-min Rain = 0
KNH1 240424Z 05003KT 12/11 A3006 RMK A01 T01190111  RH  095%=      5-min Rain = 0
KNH1 240425Z 04003KT 12/11 A3006 RMK A01 T01190111  RH  095%=      5-min Rain = 0
KNH1 240426Z 04003KT 12/11 A3006 RMK A01 T01190111  RH  095%=      5-min Rain = 0
KNH1 240427Z 05003KT 12/11 A3006 RMK A01 T01190111  RH  095%=      5-min Rain = 0
KNH1 240428Z 05003KT 12/11 A3006 RMK A01 T01190111  RH  095%=      5-min Rain = 0
KNH1 240429Z 06002KT 12/11 A3006 RMK A01 T01190111  RH  095%=      5-min Rain = 0
KNH1 240430Z 06003KT 12/11 A3006 RMK A01 T01190111  RH  095%=      5-min Rain = 0
KNH1 240431Z 07003KT 12/11 A3006 RMK A01 T01190112  RH  095%=      5-min Rain = 0
KNH1 240432Z 07003KT 12/11 A3006 RMK A01 T01190112  RH  095%=      5-min Rain = 0
KNH1 240433Z 06004KT 12/11 A3006 RMK A01 T01190112  RH  095%=      5-min Rain = 0
KNH1 240434Z 05004KT 12/11 A3005 RMK A01 T01190112  RH  095%=      5-min Rain = 0
KNH1 240435Z 04004KT 12/11 A3005 RMK A01 T01190112  RH  095%=      5-min Rain = 0
KNH1 240436Z 03004KT 12/11 A3005 RMK A01 T01190112  RH  095%=      5-min Rain = 0
KNH1 240437Z 03004KT 12/11 A3005 RMK A01 T01190112  RH  095%=      5-min Rain = 0
KNH1 240438Z 03005KT 12/11 A3005 RMK A01 T01190112  RH  095%=      5-min Rain = 0
KNH1 240439Z 02004KT 12/11 A3005 RMK A01 T01190112  RH  095%=      5-min Rain = 0
KNH1 240440Z 02005KT 12/11 A3004 RMK A01 T01190112  RH  095%=      5-min Rain = 0
KNH1 240441Z 03004KT 12/11 A3004 RMK A01 T01190112  RH  095%=      5-min Rain = 0
KNH1 240442Z 03004KT 12/11 A3004 RMK A01 T01190112  RH  095%=      5-min Rain = 0
KNH1 240443Z 04004KT 12/11 A3004 RMK A01 T01190112  RH  095%=      5-min Rain = 0
KNH1 240444Z 05004KT 12/11 A3004 RMK A01 T01190112  RH  095%=      5-min Rain = 0
KNH1 240445Z 05004KT 12/11 A3004 RMK A01 T01190112  RH  095%=      5-min Rain = 0
KNH1 240446Z 05004KT 12/11 A3004 RMK A01 T01190112  RH  095%=      5-min Rain = 0
KNH1 240447Z 04005KT 12/11 A3004 RMK A01 T01190111  RH  095%=      5-min Rain = 0
KNH1 240448Z 03005KT 12/11 A3004 RMK A01 T01190112  RH  095%=      5-min Rain = 0
KNH1 240449Z 04004KT 12/11 A3004 RMK A01 T01190112  RH  095%=      5-min Rain = 0
KNH1 240450Z 03005KT 12/11 A3004 RMK A01 T01190111  RH  095%=      5-min Rain = 0
KNH1 240451Z 03005KT 12/11 A3004 RMK A01 T01180111  RH  095%=      5-min Rain = 0
KNH1 240452Z 03005KT 12/11 A3003 RMK A01 T01180111  RH  095%=      5-min Rain = 0
KNH1 240453Z 04005KT 12/11 A3003 RMK A01 T01170110  RH  095%=      5-min Rain = 0
KNH1 240454Z 04005KT 12/11 A3003 RMK A01 T01170110  RH  095%=      5-min Rain = 0
KNH1 240455Z 04004KT 12/11 A3003 RMK A01 T01170110  RH  095%=      5-min Rain = 0
KNH1 240456Z 04005KT 12/11 A3003 RMK A01 T01170110  RH  096%=      5-min Rain = 0
KNH1 240457Z 04005KT 12/11 A3003 RMK A01 T01170110  RH  096%=      5-min Rain = 0
KNH1 240458Z 04006KT 12/11 A3003 RMK A01 T01170110  RH  096%=      5-min Rain = 0
KNH1 240459Z 03005KT 12/11 A3003 RMK A01 T01170110  RH  095%=      5-min Rain = 0

Page generated in 0.0766 seconds.